KC5DAQ-22 Weather Reports


Display with metric or nautical units.
time (UTC)temp
F
wind
direction
speed
MPH
gust
MPH
rain 1hr
in
rain 24hr
in
rain mn
in
humidity
%
barometer
mb
20260507193217 76 0 4.0 14.0 0.00 0.00 0.00 71 1012.8
20260507193117 77 1 4.0 14.0 0.00 0.00 0.00 72 1012.8
20260507193017 77 0 6.0 14.0 0.00 0.00 0.00 71 1012.8
20260507192916 77 6 6.0 14.0 0.00 0.00 0.00 71 1012.9
20260507192817 77 0 7.0 14.0 0.00 0.00 0.00 71 1012.9
20260507192718 77 0 9.0 16.0 0.00 0.00 0.00 71 1012.9
20260507192616 77 14 9.0 16.0 0.00 0.00 0.00 71 1013.0
20260507192517 77 0 9.0 16.0 0.00 0.00 0.00 72 1013.1
20260507192417 76 0 8.0 16.0 0.00 0.00 0.00 74 1013.0
20260507192316 76 31 8.0 16.0 0.00 0.00 0.00 73 1013.0
20260507192217 76 18 8.0 16.0 0.00 0.00 0.00 72 1013.0
20260507192117 76 0 7.0 16.0 0.00 0.00 0.00 73 1013.1
20260507192016 76 13 7.0 16.0 0.00 0.00 0.00 73 1013.1
20260507191916 76 13 9.0 16.0 0.00 0.00 0.00 73 1013.1
20260507191818 76 8 9.0 16.0 0.00 0.00 0.00 72 1013.0
20260507191719 76 7 8.0 14.0 0.00 0.00 0.00 72 1013.1
20260507191616 76 23 9.0 14.0 0.00 0.00 0.00 72 1013.1
20260507191516 76 23 10.0 14.0 0.00 0.00 0.00 72 1013.1
20260507191416 76 16 9.0 14.0 0.00 0.00 0.00 72 1013.1
20260507191316 76 32 6.0 14.0 0.00 0.00 0.00 72 1013.1
20260507191216 76 16 4.0 12.0 0.00 0.00 0.00 73 1013.2
20260507191117 76 18 4.0 14.0 0.00 0.00 0.00 73 1013.2
20260507191015 76 0 5.0 14.0 0.00 0.00 0.00 73 1013.1
20260507190915 75 0 5.0 14.0 0.00 0.00 0.00 73 1013.3
20260507190816 75 27 8.0 14.0 0.00 0.00 0.00 73 1013.3
20260507190717 75 28 9.0 14.0 0.00 0.00 0.00 73 1013.3
20260507190617 75 31 8.0 14.0 0.00 0.00 0.00 72 1013.4
20260507190516 75 34 8.0 14.0 0.00 0.00 0.00 72 1013.3
20260507190416 76 4 8.0 14.0 0.00 0.00 0.00 73 1013.3
20260507190316 76 21 8.0 14.0 0.00 0.00 0.00 73 1013.3
20260507190215 75 20 7.0 14.0 0.00 0.00 0.00 73 1013.3
20260507190118 75 28 8.0 13.0 0.00 0.00 0.00 73 1013.2
20260507190017 75 6 9.0 13.0 0.00 0.00 0.00 73 1013.3
20260507185916 75 23 9.0 13.0 0.00 0.00 0.00 73 1013.3
20260507185815 75 18 8.0 13.0 0.00 0.00 0.00 73 1013.3
20260507185717 75 0 8.0 14.0 0.00 0.00 0.00 73 1013.2
20260507185615 75 0 8.0 14.0 0.00 0.00 0.00 73 1013.2
20260507185516 75 13 6.0 14.0 0.00 0.00 0.00 73 1013.1
20260507185416 75 3 6.0 14.0 0.00 0.00 0.00 74 1013.2
20260507185315 75 24 7.0 14.0 0.00 0.00 0.00 73 1013.1
20260507185216 75 0 7.0 14.0 0.00 0.00 0.00 73 1013.1
20260507185116 75 0 7.0 14.0 0.00 0.00 0.00 72 1013.2
20260507185016 75 0 7.0 14.0 0.00 0.00 0.00 72 1013.2
20260507184915 76 214 10.0 14.0 0.00 0.00 0.00 72 1013.2
20260507184815 76 11 9.0 14.0 0.00 0.00 0.00 72 1013.2
20260507184716 76 8 8.0 13.0 0.00 0.00 0.00 72 1013.2
20260507184615 76 0 7.0 12.0 0.00 0.00 0.00 73 1013.3
20260507184516 76 34 6.0 12.0 0.00 0.00 0.00 73 1013.3
20260507184417 76 0 4.0 12.0 0.00 0.00 0.00 73 1013.2
20260507184317 75 11 4.0 12.0 0.00 0.00 0.00 74 1013.3
20260507184215 75 24 5.0 12.0 0.00 0.00 0.00 73 1013.3
20260507184115 75 8 6.0 12.0 0.00 0.00 0.00 73 1013.4
20260507184017 75 0 7.0 12.0 0.00 0.00 0.00 73 1013.3
20260507183916 75 0 6.0 12.0 0.00 0.00 0.00 74 1013.3
20260507183816 75 0 6.0 11.0 0.00 0.00 0.00 73 1013.3
20260507183716 75 0 7.0 11.0 0.00 0.00 0.00 74 1013.3
20260507183617 75 0 8.0 11.0 0.00 0.00 0.00 73 1013.3
20260507183516 75 0 5.0 11.0 0.00 0.00 0.00 75 1013.4
20260507183415 74 11 5.0 11.0 0.00 0.00 0.00 75 1013.3
20260507183317 74 0 6.0 14.0 0.00 0.00 0.00 75 1013.4
20260507183215 74 10 5.0 14.0 0.00 0.00 0.00 75 1013.4
20260507183115 74 3 6.0 14.0 0.00 0.00 0.00 74 1013.4
20260507183016 74 10 6.0 14.0 0.00 0.00 0.00 75 1013.5
20260507182916 74 0 5.0 14.0 0.00 0.00 0.00 74 1013.5
20260507182815 74 1 6.0 14.0 0.00 0.00 0.00 74 1013.3
20260507182715 74 0 6.0 14.0 0.00 0.00 0.00 74 1013.4
20260507182617 74 0 6.0 14.0 0.00 0.00 0.00 74 1013.4
20260507182514 74 0 8.0 14.0 0.00 0.00 0.00 75 1013.4
20260507182415 74 3 8.0 14.0 0.00 0.00 0.00 74 1013.5
20260507182316 74 0 6.0 13.0 0.00 0.00 0.00 75 1013.5
20260507182216 74 1 4.0 13.0 0.00 0.00 0.00 74 1013.4
20260507182115 74 1 6.0 13.0 0.00 0.00 0.00 73 1013.5
20260507182017 74 8 7.0 13.0 0.00 0.00 0.00 73 1013.5
20260507181916 75 0 7.0 13.0 0.00 0.00 0.00 73 1013.5
20260507181815 75 3 7.0 12.0 0.00 0.00 0.00 74 1013.5
20260507181715 75 30 6.0 12.0 0.00 0.00 0.00 74 1013.5
20260507181615 75 8 5.0 12.0 0.00 0.00 0.00 74 1013.5
20260507181515 74 0 5.0 12.0 0.00 0.00 0.00 74 1013.5
20260507181416 75 0 5.0 12.0 0.00 0.00 0.00 73 1013.4
20260507181314 75 0 6.0 12.0 0.00 0.00 0.00 74 1013.6
20260507181216 75 17 7.0 12.0 0.00 0.00 0.00 74 1013.6
20260507181114 75 0 7.0 12.0 0.00 0.00 0.00 75 1013.6
20260507181015 74 0 5.0 12.0 0.00 0.00 0.00 76 1013.6
20260507180915 74 0 3.0 12.0 0.00 0.00 0.00 76 1013.6
20260507180815 74 0 4.0 12.0 0.00 0.00 0.00 75 1013.7
20260507180715 73 0 6.0 12.0 0.00 0.00 0.00 76 1013.7
20260507180615 74 0 6.0 12.0 0.00 0.00 0.00 75 1013.7
20260507180514 74 0 4.0 12.0 0.00 0.00 0.00 74 1013.7
20260507180415 74 3 6.0 12.0 0.00 0.00 0.00 74 1013.7
20260507180316 74 3 6.0 12.0 0.00 0.00 0.00 74 1013.8
20260507180216 74 3 6.0 13.0 0.00 0.00 0.00 74 1013.8
20260507180116 74 3 6.0 13.0 0.00 0.00 0.00 74 1013.8
20260507180004 74 3 6.0 13.0 0.00 0.00 0.00 74 1013.8
20260507175902 74 0 6.0 13.0 0.00 0.00 0.00 74 1013.8
20260507175803 74 0 6.0 13.0 0.00 0.00 0.00 73 1013.8
20260507175704 75 0 7.0 13.0 0.00 0.00 0.00 73 1013.8
20260507175602 75 0 9.0 13.0 0.00 0.00 0.00 73 1013.8
20260507175502 75 25 8.0 13.0 0.00 0.00 0.00 73 1013.9
20260507175403 75 13 8.0 13.0 0.00 0.00 0.00 73 1013.8
20260507175306 75 0 8.0 13.0 0.00 0.00 0.00 74 1013.9
20260507175202 75 10 7.0 13.0 0.00 0.00 0.00 75 1013.8
20260507175102 74 17 7.0 13.0 0.00 0.00 0.00 74 1013.8
20260507175004 74 24 5.0 13.0 0.00 0.00 0.00 75 1013.9
20260507174902 74 1 4.0 13.0 0.00 0.00 0.00 75 1013.9
20260507174803 74 0 5.0 13.0 0.00 0.00 0.00 75 1014.0
20260507174704 73 0 8.0 13.0 0.00 0.00 0.00 75 1014.1
20260507174602 74 13 9.0 13.0 0.00 0.00 0.00 74 1014.0
20260507174503 74 21 8.0 13.0 0.00 0.00 0.00 74 1014.1
20260507174403 74 11 8.0 13.0 0.00 0.00 0.00 75 1014.1
20260507174302 74 10 6.0 13.0 0.00 0.00 0.00 75 1014.1
20260507174202 74 16 6.0 13.0 0.00 0.00 0.00 75 1014.1
20260507174101 73 4 6.0 13.0 0.00 0.00 0.00 74 1014.1
20260507174004 73 17 7.0 13.0 0.00 0.00 0.00 74 1014.1
20260507173902 73 14 7.0 13.0 0.00 0.00 0.00 74 1014.0
20260507173802 74 6 7.0 12.0 0.00 0.00 0.00 74 1014.0
20260507173703 74 18 8.0 12.0 0.00 0.00 0.00 73 1014.0
20260507173603 74 27 8.0 12.0 0.00 0.00 0.00 74 1014.1
20260507173504 74 0 6.0 11.0 0.00 0.00 0.00 75 1014.0
20260507173402 74 24 5.0 11.0 0.00 0.00 0.00 75 1014.0
20260507173303 73 0 6.0 11.0 0.00 0.00 0.00 75 1014.0
20260507173202 73 0 6.0 11.0 0.00 0.00 0.00 74 1014.1
20260507173101 73 0 6.0 11.0 0.00 0.00 0.00 74 1014.1
20260507173002 73 20 7.0 11.0 0.00 0.00 0.00 74 1014.1
20260507172903 73 7 6.0 11.0 0.00 0.00 0.00 74 1014.1
20260507172802 73 18 6.0 9.0 0.00 0.00 0.00 74 1014.0
20260507172705 73 16 5.0 9.0 0.00 0.00 0.00 74 1014.1
20260507172603 73 21 6.0 9.0 0.00 0.00 0.00 74 1014.1
20260507172502 74 180 6.0 9.0 0.00 0.00 0.00 74 1014.1
20260507172402 73 11 4.0 11.0 0.00 0.00 0.00 74 1014.1
20260507172307 73 0 5.0 12.0 0.00 0.00 0.00 74 1014.1
20260507172202 74 0 6.0 12.0 0.00 0.00 0.00 75 1014.2
20260507172102 73 0 5.0 12.0 0.00 0.00 0.00 76 1014.2
20260507172004 73 8 4.0 12.0 0.00 0.00 0.00 76 1014.2
20260507171903 73 8 4.0 12.0 0.00 0.00 0.00 76 1014.2
20260507171802 73 8 4.0 12.0 0.00 0.00 0.00 76 1014.1
20260507171702 73 4 4.0 12.0 0.00 0.00 0.00 76 1014.2
20260507171603 72 13 5.0 12.0 0.00 0.00 0.00 76 1014.2
20260507171502 72 169 7.0 12.0 0.00 0.00 0.00 76 1014.2
20260507171403 72 13 6.0 12.0 0.00 0.00 0.00 76 1014.3
20260507171303 72 155 6.0 10.0 0.00 0.00 0.00 77 1014.3
20260507171202 72 7 6.0 13.0 0.00 0.00 0.00 76 1014.3
20260507171102 72 3 4.0 13.0 0.00 0.00 0.00 77 1014.3
20260507171002 71 16 4.0 13.0 0.00 0.00 0.00 77 1014.3
20260507170902 71 8 5.0 13.0 0.00 0.00 0.00 77 1014.4
20260507170801 71 10 5.0 13.0 0.00 0.00 0.00 78 1014.3
20260507170702 71 1 6.0 13.0 0.00 0.00 0.00 78 1014.4
20260507170603 71 157 7.0 13.0 0.00 0.00 0.00 78 1014.3
20260507170503 70 20 9.0 13.0 0.00 0.00 0.00 78 1014.3
20260507170402 70 20 9.0 13.0 0.00 0.00 0.00 78 1014.4
20260507170303 70 20 9.0 13.0 0.00 0.00 0.00 78 1014.4
20260507170202 70 18 8.0 12.0 0.00 0.00 0.00 77 1014.4
20260507170103 70 21 8.0 12.0 0.00 0.00 0.00 77 1014.3
20260507170003 71 20 7.0 11.0 0.00 0.00 0.00 77 1014.3
20260507165904 71 21 6.0 11.0 0.00 0.00 0.00 78 1014.3
20260507165803 70 23 6.0 13.0 0.00 0.00 0.00 77 1014.3
20260507165702 70 6 7.0 13.0 0.00 0.00 0.00 77 1014.3
20260507165602 71 11 7.0 13.0 0.00 0.00 0.00 77 1014.3
20260507165502 71 20 7.0 13.0 0.00 0.00 0.00 77 1014.2
20260507165403 71 8 6.0 13.0 0.00 0.00 0.00 77 1014.3
20260507165306 71 10 5.0 13.0 0.00 0.00 0.00 78 1014.3
20260507165202 70 7 6.0 13.0 0.00 0.00 0.00 78 1014.2
20260507165103 70 1 8.0 13.0 0.00 0.00 0.00 76 1014.1
20260507165003 70 0 9.0 13.0 0.00 0.00 0.00 76 1014.1
20260507164903 71 7 6.0 13.0 0.00 0.00 0.00 77 1014.1
20260507164803 70 204 4.0 12.0 0.00 0.00 0.00 77 1014.0
20260507164701 70 0 6.0 12.0 0.00 0.00 0.00 77 1014.0
20260507164603 70 1 6.0 13.0 0.00 0.00 0.00 76 1014.1
20260507164504 71 207 5.0 13.0 0.00 0.00 0.00 76 1014.0
20260507164402 71 8 5.0 13.0 0.00 0.00 0.00 76 1014.0
20260507164302 71 8 6.0 14.0 0.00 0.00 0.00 76 1014.1
20260507164202 71 0 7.0 14.0 0.00 0.00 0.00 76 1014.1
20260507164102 71 16 6.0 14.0 0.00 0.00 0.00 77 1014.1
20260507164002 71 11 5.0 14.0 0.00 0.00 0.00 77 1014.1
20260507163903 70 10 7.0 14.0 0.00 0.00 0.00 76 1014.0
20260507163802 70 14 8.0 14.0 0.00 0.00 0.00 76 1014.1
20260507163702 70 21 7.0 15.0 0.00 0.00 0.00 77 1014.1
20260507163602 71 23 7.0 15.0 0.00 0.00 0.00 76 1014.1
20260507163503 71 0 7.0 15.0 0.00 0.00 0.00 77 1014.1
20260507163402 71 204 8.0 15.0 0.00 0.00 0.00 76 1014.0
20260507163302 71 200 7.0 15.0 0.00 0.00 0.00 77 1014.0
20260507163201 71 0 5.0 15.0 0.00 0.00 0.00 78 1014.0
20260507163101 70 14 2.0 15.0 0.00 0.00 0.00 78 1014.0
20260507163004 70 3 3.0 15.0 0.00 0.00 0.00 78 1013.8
20260507162902 70 4 8.0 15.0 0.00 0.00 0.00 78 1013.8
20260507162803 70 25 8.0 15.0 0.00 0.00 0.00 78 1013.8
20260507162702 70 11 7.0 15.0 0.00 0.00 0.00 77 1013.8
20260507162603 70 11 9.0 15.0 0.00 0.00 0.00 78 1013.8
20260507162504 70 23 8.0 15.0 0.00 0.00 0.00 78 1013.9
20260507162402 70 31 5.0 15.0 0.00 0.00 0.00 78 1013.9
20260507162306 69 0 5.0 15.0 0.00 0.00 0.00 78 1013.8
20260507162203 69 17 7.0 15.0 0.00 0.00 0.00 78 1013.7
20260507162103 69 4 9.0 18.0 0.00 0.00 0.00 78 1013.6
20260507162004 69 27 9.0 18.0 0.00 0.00 0.00 78 1013.7
20260507161903 69 190 10.0 18.0 0.00 0.00 0.00 78 1013.6
20260507161803 69 10 11.0 18.0 0.00 0.00 0.00 79 1013.6
20260507161704 69 11 10.0 18.0 0.00 0.00 0.00 79 1013.6
20260507161602 69 17 9.0 18.0 0.00 0.00 0.00 78 1013.6
20260507161503 69 42 9.0 18.0 0.00 0.00 0.00 78 1013.6
20260507161404 69 13 9.0 18.0 0.00 0.00 0.00 79 1013.6
20260507161301 69 6 11.0 18.0 0.00 0.00 0.00 78 1013.7
20260507161202 69 20 11.0 18.0 0.00 0.00 0.00 79 1013.7
20260507161102 69 10 10.0 15.0 0.00 0.00 0.00 79 1013.8
20260507161002 69 24 8.0 15.0 0.00 0.00 0.00 79 1013.8
20260507160902 69 21 7.0 11.0 0.00 0.00 0.00 80 1013.8
20260507160804 69 16 8.0 13.0 0.00 0.00 0.00 80 1013.9
20260507160703 69 11 7.0 13.0 0.00 0.00 0.00 80 1013.9
20260507160602 69 16 5.0 13.0 0.00 0.00 0.00 81 1014.0
20260507160503 68 10 4.0 13.0 0.00 0.00 0.00 81 1014.0
20260507160402 68 0 6.0 13.0 0.00 0.00 0.00 81 1014.1
20260507160303 68 6 5.0 13.0 0.00 0.00 0.00 81 1014.1
20260507160202 68 10 5.0 13.0 0.00 0.00 0.00 81 1014.1
20260507160002 67 13 9.0 13.0 0.00 0.00 0.00 81 1014.1
20260507155901 67 11 10.0 13.0 0.00 0.00 0.00 81 1014.2
20260507155803 67 14 9.0 13.0 0.00 0.00 0.00 82 1014.1
20260507155703 67 11 7.0 12.0 0.00 0.00 0.00 82 1014.1
20260507155603 67 0 6.0 12.0 0.00 0.00 0.00 82 1014.2
20260507155502 67 0 7.0 12.0 0.00 0.00 0.00 82 1014.2
20260507155401 67 0 8.0 12.0 0.00 0.00 0.00 82 1014.2
20260507155305 67 0 6.0 12.0 0.00 0.00 0.00 82 1014.3
20260507155202 67 7 5.0 9.0 0.00 0.00 0.00 82 1014.2
20260507155103 67 0 5.0 12.0 0.00 0.00 0.00 83 1014.2
20260507155003 67 0 5.0 12.0 0.00 0.00 0.00 83 1014.2
20260507154902 67 0 5.0 12.0 0.00 0.00 0.00 82 1014.2
20260507154801 67 7 6.0 12.0 0.00 0.00 0.00 82 1014.2
20260507154703 67 0 6.0 12.0 0.00 0.00 0.00 82 1014.2
20260507154601 67 82 4.0 12.0 0.00 0.00 0.00 83 1014.2
20260507154502 66 1 4.0 12.0 0.00 0.00 0.00 83 1014.3
20260507154403 66 8 5.0 12.0 0.00 0.00 0.00 83 1014.3
20260507154302 66 3 7.0 12.0 0.00 0.00 0.00 83 1014.3
20260507154202 66 3 8.0 12.0 0.00 0.00 0.00 83 1014.2
20260507154104 66 0 8.0 12.0 0.00 0.00 0.00 83 1014.2
20260507154005 66 6 6.0 12.0 0.00 0.00 0.00 84 1014.2
20260507153903 66 4 4.0 12.0 0.00 0.00 0.00 83 1014.2
20260507153803 65 4 6.0 12.0 0.00 0.00 0.00 84 1014.2
20260507153703 65 4 6.0 12.0 0.00 0.00 0.00 84 1014.3
20260507153603 65 4 6.0 13.0 0.00 0.00 0.00 84 1014.3
20260507153503 65 1 6.0 13.0 0.00 0.00 0.00 84 1014.3
20260507153403 65 0 6.0 13.0 0.00 0.00 0.00 84 1014.3
20260507153303 65 0 6.0 13.0 0.00 0.00 0.00 84 1014.3
20260507153204 65 0 6.0 13.0 0.00 0.00 0.00 85 1014.3
20260507153102 65 4 7.0 13.0 0.00 0.00 0.00 85 1014.4
20260507153004 65 3 7.0 13.0 0.00 0.00 0.00 85 1014.3
20260507152901 65 4 8.0 13.0 0.00 0.00 0.00 85 1014.3
20260507152801 65 1 8.0 13.0 0.00 0.00 0.00 86 1014.3
20260507152703 64 0 7.0 13.0 0.00 0.00 0.00 86 1014.4
20260507152602 64 4 6.0 13.0 0.00 0.00 0.00 86 1014.4
20260507152502 64 6 7.0 13.0 0.00 0.00 0.00 86 1014.4
20260507152404 64 6 6.0 13.0 0.00 0.00 0.00 86 1014.4
20260507152305 64 6 6.0 13.0 0.00 0.00 0.00 86 1014.4
20260507152202 64 6 6.0 13.0 0.00 0.00 0.00 86 1014.4
20260507152102 64 1 7.0 13.0 0.00 0.00 0.00 86 1014.4
20260507152004 64 6 9.0 15.0 0.00 0.00 0.00 86 1014.4
20260507151903 64 3 9.0 15.0 0.00 0.00 0.00 86 1014.3
20260507151802 64 1 8.0 15.0 0.00 0.00 0.00 86 1014.3
20260507151704 64 3 7.0 15.0 0.00 0.00 0.00 86 1014.3
20260507151602 64 3 8.0 15.0 0.00 0.00 0.00 86 1014.3
20260507151502 64 0 8.0 15.0 0.00 0.00 0.00 86 1014.3
20260507151402 64 0 7.0 15.0 0.00 0.00 0.00 86 1014.2
20260507151302 64 1 8.0 15.0 0.00 0.00 0.00 86 1014.3
20260507151202 64 1 9.0 15.0 0.00 0.00 0.00 86 1014.2
20260507151102 64 0 8.0 15.0 0.00 0.00 0.00 87 1014.2
20260507151004 64 0 5.0 15.0 0.00 0.00 0.00 87 1014.2
20260507150902 64 7 6.0 15.0 0.00 0.00 0.00 87 1014.2
20260507150802 64 1 6.0 15.0 0.00 0.00 0.00 87 1014.1
20260507150703 63 4 6.0 15.0 0.00 0.00 0.00 87 1014.1
20260507150603 63 6 6.0 15.0 0.00 0.00 0.00 87 1014.1
20260507150503 63 6 9.0 15.0 0.00 0.00 0.00 87 1014.1
20260507150402 63 3 11.0 15.0 0.00 0.00 0.00 87 1014.1
20260507150303 63 3 8.0 15.0 0.00 0.00 0.00 87 1014.3
20260507150202 63 1 7.0 14.0 0.00 0.00 0.00 87 1014.2
20260507150005 63 4 7.0 14.0 0.00 0.00 0.00 87 1014.3
20260507145903 63 3 8.0 14.0 0.00 0.00 0.00 87 1014.3
20260507145802 63 0 9.0 14.0 0.00 0.00 0.00 87 1014.3
20260507145703 63 4 9.0 14.0 0.00 0.00 0.00 87 1014.3
20260507145603 63 52 7.0 14.0 0.00 0.00 0.00 87 1014.2
20260507145503 63 0 9.0 14.0 0.00 0.00 0.00 87 1014.2
20260507145402 63 52 9.0 14.0 0.00 0.00 0.00 87 1014.3
20260507145306 63 48 6.0 14.0 0.00 0.00 0.00 87 1014.3
20260507145203 63 52 5.0 14.0 0.00 0.00 0.00 87 1014.3
20260507145103 63 0 6.0 14.0 0.00 0.00 0.00 87 1014.2
20260507145003 63 52 7.0 14.0 0.00 0.00 0.00 87 1014.2
20260507144903 63 52 6.0 13.0 0.00 0.00 0.00 87 1014.1
20260507144803 63 3 7.0 13.0 0.00 0.00 0.00 87 1014.1
20260507144702 63 1 8.0 13.0 0.00 0.00 0.00 87 1014.0
20260507144603 63 0 7.0 16.0 0.00 0.00 0.00 87 1014.1
20260507144502 63 0 7.0 16.0 0.00 0.00 0.00 87 1014.1
20260507144402 63 4 6.0 16.0 0.00 0.00 0.00 87 1014.1
20260507144302 63 6 7.0 16.0 0.00 0.00 0.00 87 1014.1
20260507144203 63 1 7.0 16.0 0.00 0.00 0.00 87 1014.1
20260507144103 63 6 8.0 16.0 0.00 0.00 0.00 87 1014.1
20260507144002 63 6 9.0 16.0 0.00 0.00 0.00 87 1014.1
20260507143904 63 3 7.0 16.0 0.00 0.00 0.00 87 1014.0
20260507143803 63 4 9.0 16.0 0.00 0.00 0.00 87 1014.0
20260507143703 63 6 9.0 16.0 0.00 0.00 0.00 87 1014.0
20260507143603 63 6 7.0 16.0 0.00 0.00 0.00 87 1013.9
20260507143504 63 7 7.0 15.0 0.00 0.00 0.00 87 1013.9
20260507143402 63 6 4.0 15.0 0.00 0.00 0.00 88 1013.9
20260507143303 63 4 4.0 15.0 0.00 0.00 0.00 88 1013.9
20260507143202 63 1 5.0 15.0 0.00 0.00 0.00 87 1013.8
20260507143102 63 1 6.0 15.0 0.00 0.00 0.00 88 1013.9
20260507143001 63 3 7.0 15.0 0.00 0.00 0.00 88 1013.9
20260507142901 63 3 9.0 15.0 0.00 0.00 0.00 88 1013.9
20260507142804 63 10 9.0 15.0 0.00 0.00 0.00 88 1013.9
20260507142702 63 4 8.0 15.0 0.00 0.00 0.00 88 1013.9
20260507142603 63 7 8.0 15.0 0.00 0.00 0.00 88 1013.9
20260507142504 63 3 9.0 15.0 0.00 0.00 0.00 88 1013.8
20260507142402 63 0 8.0 15.0 0.00 0.00 0.00 88 1013.9
20260507142306 63 7 8.0 15.0 0.00 0.00 0.00 88 1013.8
20260507142203 63 6 8.0 15.0 0.00 0.00 0.00 88 1013.9
20260507142103 63 52 8.0 15.0 0.00 0.00 0.00 88 1013.9
20260507142005 63 1 5.0 15.0 0.00 0.00 0.00 88 1013.8
20260507141903 63 7 6.0 15.0 0.00 0.00 0.00 88 1013.8
20260507141803 63 7 6.0 15.0 0.00 0.00 0.00 88 1013.8
20260507141703 63 7 6.0 15.0 0.00 0.00 0.00 88 1013.8
20260507141602 63 3 5.0 12.0 0.00 0.00 0.00 88 1013.9
20260507141505 63 6 6.0 14.0 0.00 0.00 0.00 88 1013.9
20260507141402 63 3 6.0 14.0 0.00 0.00 0.00 88 1014.0
20260507141302 63 55 5.0 14.0 0.00 0.00 0.00 88 1013.9
20260507141203 63 7 7.0 14.0 0.00 0.00 0.00 88 1013.9
20260507141103 63 54 8.0 14.0 0.00 0.00 0.00 88 1013.8
20260507141006 63 0 8.0 14.0 0.00 0.00 0.00 88 1013.9
20260507140902 63 55 7.0 14.0 0.00 0.00 0.00 88 1013.8
20260507140803 63 52 6.0 14.0 0.00 0.00 0.00 88 1013.9
20260507140702 63 0 7.0 14.0 0.00 0.00 0.00 88 1013.9
20260507140604 63 0 9.0 14.0 0.00 0.00 0.00 88 1013.8
20260507140504 63 0 7.0 14.0 0.00 0.00 0.00 88 1013.7
20260507140403 63 0 7.0 14.0 0.00 0.00 0.00 88 1013.8
20260507140301 63 1 8.0 14.0 0.00 0.00 0.00 88 1013.8
20260507140202 63 6 8.0 14.0 0.00 0.00 0.00 88 1013.8
20260507140105 63 4 7.0 14.0 0.00 0.00 0.00 88 1013.8
20260507140004 63 3 7.0 13.0 0.00 0.00 0.00 88 1013.9
20260507135903 64 3 7.0 13.0 0.00 0.00 0.00 88 1013.9
20260507135803 64 7 7.0 13.0 0.00 0.00 0.00 88 1014.0
20260507135703 64 4 7.0 13.0 0.00 0.00 0.00 88 1014.0
20260507135602 64 4 5.0 11.0 0.00 0.00 0.00 88 1014.0
20260507135503 64 54 4.0 11.0 0.00 0.00 0.00 88 1014.1
20260507135402 64 4 4.0 11.0 0.00 0.00 0.00 88 1014.0
20260507135306 64 3 4.0 11.0 0.00 0.00 0.00 88 1014.0
20260507135202 64 3 4.0 12.0 0.00 0.00 0.00 88 1014.0
20260507135102 64 54 5.0 12.0 0.00 0.00 0.00 88 1014.1
20260507135001 64 0 6.0 15.0 0.00 0.00 0.00 88 1014.1
20260507134901 64 1 6.0 15.0 0.00 0.00 0.00 88 1014.0
20260507134804 63 6 6.0 15.0 0.00 0.00 0.00 88 1014.1
20260507134702 63 3 6.0 15.0 0.00 0.00 0.00 88 1014.1
20260507134602 63 1 5.0 15.0 0.00 0.00 0.00 88 1014.1
20260507134504 63 0 6.0 15.0 0.00 0.00 0.00 89 1014.1
20260507134404 63 0 7.0 15.0 0.00 0.00 0.00 88 1014.2
20260507134302 63 0 8.0 15.0 0.00 0.00 0.00 88 1014.1
20260507134202 63 0 8.0 15.0 0.00 0.00 0.00 88 1014.3
20260507134102 63 1 9.0 15.0 0.00 0.00 0.00 88 1014.3
20260507134003 63 55 8.0 15.0 0.00 0.00 0.00 88 1014.3
20260507133903 63 3 8.0 15.0 0.00 0.00 0.00 88 1014.2
20260507133804 63 3 9.0 15.0 0.00 0.00 0.00 88 1014.3
20260507133702 63 0 9.0 15.0 0.00 0.00 0.00 88 1014.3
20260507133603 63 0 5.0 15.0 0.00 0.00 0.00 88 1014.2
20260507133502 63 1 4.0 15.0 0.00 0.00 0.00 88 1014.2
20260507133404 63 0 5.0 15.0 0.00 0.00 0.00 89 1014.2
20260507133302 63 0 5.0 15.0 0.00 0.00 0.00 89 1014.1
20260507133202 63 4 6.0 15.0 0.00 0.00 0.00 89 1014.1
20260507133102 63 1 8.0 15.0 0.00 0.00 0.00 88 1014.1
20260507133003 63 3 7.0 15.0 0.00 0.00 0.00 89 1014.0
20260507132901 63 0 7.0 15.0 0.00 0.00 0.00 89 1014.1
20260507132802 63 0 9.0 15.0 0.00 0.00 0.00 89 1014.1
20260507132703 63 4 9.0 15.0 0.00 0.00 0.00 89 1014.2
20260507132602 63 6 8.0 13.0 0.00 0.00 0.00 89 1014.2
20260507132502 63 3 8.0 13.0 0.00 0.00 0.00 89 1014.2
20260507132403 63 8 8.0 13.0 0.00 0.00 0.00 88 1014.3
20260507132306 63 7 7.0 13.0 0.00 0.00 0.00 89 1014.3
20260507132203 63 1 5.0 13.0 0.00 0.00 0.00 89 1014.4
20260507132104 63 0 5.0 13.0 0.00 0.00 0.00 89 1014.4
20260507132003 63 0 7.0 13.0 0.00 0.00 0.00 89 1014.5
20260507131903 63 4 8.0 13.0 0.00 0.00 0.00 89 1014.4
20260507131803 63 0 7.0 11.0 0.00 0.00 0.00 89 1014.5
20260507131704 63 0 7.0 11.0 0.00 0.00 0.00 89 1014.5
20260507131606 63 0 6.0 10.0 0.00 0.00 0.00 89 1014.4
20260507131503 63 0 4.0 11.0 0.00 0.00 0.00 89 1014.3
20260507131403 63 0 3.0 11.0 0.00 0.00 0.00 89 1014.2
20260507131302 63 4 4.0 13.0 0.00 0.00 0.00 89 1014.3
20260507131203 63 1 4.0 13.0 0.00 0.00 0.00 89 1014.2
20260507131103 63 0 4.0 13.0 0.00 0.00 0.00 89 1014.2
20260507131004 63 4 4.0 13.0 0.00 0.00 0.00 89 1014.2
20260507130902 63 52 5.0 13.0 0.00 0.00 0.00 89 1014.3
20260507130802 63 0 6.0 13.0 0.00 0.00 0.00 89 1014.2
20260507130704 63 52 7.0 14.0 0.00 0.00 0.00 89 1014.2
20260507130602 63 52 8.0 14.0 0.00 0.00 0.00 89 1014.3
20260507130504 63 0 8.0 14.0 0.00 0.00 0.00 89 1014.1
20260507130403 63 0 7.0 14.0 0.00 0.00 0.00 89 1014.2
20260507130303 63 1 7.0 14.0 0.00 0.00 0.00 89 1014.2
20260507130202 63 4 8.0 14.0 0.00 0.00 0.00 89 1014.2
20260507130103 63 3 7.0 14.0 0.00 0.00 0.00 89 1014.3
20260507125955 63 0 6.0 14.0 0.00 0.00 0.00 88 1014.3
20260507125851 63 0 7.0 14.0 0.00 0.00 0.00 88 1014.3
20260507125750 63 49 7.0 14.0 0.00 0.00 0.00 89 1014.3
20260507125648 63 51 7.0 14.0 0.00 0.00 0.00 88 1014.3
20260507125545 63 4 5.0 14.0 0.00 0.00 0.00 88 1014.3
20260507125445 63 49 4.0 14.0 0.00 0.00 0.00 89 1014.3
20260507125344 63 1 4.0 14.0 0.00 0.00 0.00 89 1014.2
20260507125242 63 48 6.0 14.0 0.00 0.00 0.00 89 1014.1
20260507125140 63 49 7.0 14.0 0.00 0.00 0.00 88 1014.0
20260507125038 63 51 7.0 14.0 0.00 0.00 0.00 88 1013.9
20260507124939 63 3 8.0 14.0 0.00 0.00 0.00 88 1013.8
20260507124837 64 3 9.0 14.0 0.00 0.00 0.00 88 1013.7
20260507124735 64 0 8.0 13.0 0.00 0.00 0.00 89 1013.7
20260507124632 64 51 7.0 13.0 0.00 0.00 0.00 89 1013.6
20260507124532 64 49 5.0 11.0 0.00 0.00 0.00 89 1013.6
20260507124431 64 51 5.0 11.0 0.00 0.00 0.00 89 1013.5
20260507124332 64 49 5.0 11.0 0.00 0.00 0.00 89 1013.6
20260507124232 64 1 4.0 11.0 0.00 0.00 0.00 89 1013.5
20260507124131 64 51 5.0 11.0 0.00 0.00 0.00 89 1013.5
20260507124031 64 49 6.0 11.0 0.00 0.00 0.00 89 1013.6
20260507123931 64 47 6.0 12.0 0.00 0.00 0.00 89 1013.5
20260507123831 64 49 7.0 12.0 0.00 0.00 0.00 89 1013.5
20260507123731 64 51 7.0 12.0 0.00 0.00 0.00 89 1013.4
20260507123631 64 3 7.0 12.0 0.00 0.00 0.00 89 1013.5
20260507123532 64 0 6.0 12.0 0.00 0.00 0.00 89 1013.5
20260507123431 63 3 6.0 12.0 0.00 0.00 0.00 89 1013.5
20260507123326 64 0 6.0 12.0 0.00 0.00 0.00 89 1013.4
20260507123224 64 0 6.0 12.0 0.00 0.00 0.00 89 1013.5
20260507123122 64 0 6.0 12.0 0.00 0.00 0.00 89 1013.5
20260507123022 64 48 7.0 12.0 0.00 0.00 0.00 89 1013.6
20260507122918 64 48 7.0 11.0 0.00 0.00 0.00 89 1013.6
20260507122816 64 47 6.0 10.0 0.00 0.00 0.00 89 1013.6
20260507122716 64 44 5.0 10.0 0.00 0.00 0.00 89 1013.5
20260507122613 64 0 6.0 10.0 0.00 0.00 0.00 89 1013.4
20260507122511 64 48 6.0 10.0 0.00 0.00 0.00 89 1013.2
20260507122410 64 0 6.0 10.0 0.00 0.00 0.00 89 1013.2
20260507122309 64 0 5.0 10.0 0.00 0.00 0.00 89 1013.1
20260507122207 64 4 6.0 10.0 0.00 0.00 0.00 89 1013.1
20260507122107 64 3 8.0 10.0 0.00 0.00 0.00 89 1013.1
20260507122007 64 0 6.0 11.0 0.00 0.00 0.00 89 1013.1
20260507121907 64 4 5.0 13.0 0.00 0.00 0.00 89 1013.2
20260507121807 64 48 4.0 13.0 0.00 0.00 0.00 89 1013.2
20260507121706 64 0 4.0 13.0 0.00 0.00 0.00 89 1013.3
20260507121606 64 49 5.0 15.0 0.00 0.00 0.00 89 1013.3
20260507121507 64 48 5.0 15.0 0.00 0.00 0.00 89 1013.4
20260507121406 64 0 4.0 15.0 0.00 0.00 0.00 89 1013.4
20260507121308 64 0 4.0 15.0 0.00 0.00 0.00 89 1013.3
20260507121207 64 0 5.0 15.0 0.00 0.00 0.00 89 1013.3
20260507121106 64 49 7.0 15.0 0.00 0.00 0.00 89 1013.3
20260507121007 64 0 7.0 15.0 0.00 0.00 0.00 89 1013.1
20260507120908 64 1 8.0 15.0 0.00 0.00 0.00 89 1013.1
20260507120808 64 0 9.0 15.0 0.00 0.00 0.00 89 1013.0
20260507120707 64 49 7.0 15.0 0.00 0.00 0.00 89 1013.0
20260507120607 64 7 6.0 13.0 0.00 0.00 0.00 89 1013.0
20260507120508 64 6 7.0 13.0 0.00 0.00 0.00 89 1013.0
20260507120406 65 3 7.0 13.0 0.00 0.00 0.00 89 1013.0
20260507120307 65 51 6.0 13.0 0.00 0.00 0.00 89 1013.1
20260507120207 65 10 6.0 13.0 0.00 0.00 0.00 89 1013.1
20260507120108 65 3 5.0 13.0 0.00 0.00 0.00 89 1013.1
20260507120006 65 49 4.0 13.0 0.00 0.00 0.00 89 1013.1
20260507115906 65 48 5.0 13.0 0.00 0.00 0.00 89 1013.1
20260507115808 65 48 7.0 13.0 0.00 0.00 0.00 89 1013.0
20260507115707 65 48 7.0 13.0 0.00 0.00 0.00 89 1013.1
20260507115606 65 51 7.0 12.0 0.00 0.00 0.00 89 1013.1
20260507115506 65 49 6.0 12.0 0.00 0.00 0.00 89 1013.0
20260507115407 65 48 5.0 12.0 0.00 0.00 0.00 89 1012.9
20260507115307 65 0 5.0 12.0 0.00 0.00 0.00 89 1012.9
20260507115206 65 1 5.0 12.0 0.00 0.00 0.00 89 1012.8
20260507115107 65 48 5.0 12.0 0.00 0.00 0.00 89 1012.8
20260507115005 65 0 6.0 12.0 0.00 0.00 0.00 89 1012.8
20260507114906 65 0 7.0 12.0 0.00 0.00 0.00 89 1012.7
20260507114808 65 48 6.0 12.0 0.00 0.00 0.00 89 1012.7
20260507114706 65 1 4.0 13.0 0.00 0.00 0.00 89 1012.7
20260507114606 65 51 4.0 13.0 0.00 0.00 0.00 89 1012.7
20260507114505 65 0 4.0 13.0 0.00 0.00 0.00 89 1012.5
20260507114408 65 0 6.0 13.0 0.00 0.00 0.00 89 1012.5
20260507114306 65 1 6.0 13.0 0.00 0.00 0.00 89 1012.4
20260507114205 65 3 6.0 13.0 0.00 0.00 0.00 89 1012.5
20260507114107 65 1 5.0 13.0 0.00 0.00 0.00 89 1012.5
20260507114007 65 49 6.0 13.0 0.00 0.00 0.00 89 1012.6
20260507113905 65 52 7.0 13.0 0.00 0.00 0.00 89 1012.6
20260507113805 65 1 8.0 13.0 0.00 0.00 0.00 89 1012.4
20260507113706 65 4 6.0 10.0 0.00 0.00 0.00 89 1012.4
20260507113605 65 3 5.0 10.0 0.00 0.00 0.00 89 1012.3
20260507113505 65 0 5.0 11.0 0.00 0.00 0.00 89 1012.3
20260507113405 65 1 5.0 11.0 0.00 0.00 0.00 89 1012.3
20260507113306 65 0 4.0 11.0 0.00 0.00 0.00 89 1012.4
20260507113205 65 0 3.0 11.0 0.00 0.00 0.00 89 1012.4
20260507113105 65 4 4.0 11.0 0.00 0.00 0.00 89 1012.3
20260507113006 65 3 6.0 11.0 0.00 0.00 0.00 89 1012.4
20260507112905 65 1 6.0 11.0 0.00 0.00 0.00 89 1012.4
20260507112806 65 1 5.0 11.0 0.00 0.00 0.00 89 1012.4
20260507112705 65 51 6.0 11.0 0.00 0.00 0.00 89 1012.4
20260507112605 65 0 7.0 11.0 0.00 0.00 0.00 89 1012.4
20260507112505 65 3 6.0 11.0 0.00 0.00 0.00 89 1012.3
20260507112405 65 47 5.0 10.0 0.00 0.00 0.00 89 1012.2
20260507112308 65 4 5.0 9.0 0.00 0.00 0.00 90 1012.2
20260507112206 65 0 5.0 9.0 0.00 0.00 0.00 90 1012.1
20260507112106 65 0 4.0 9.0 0.00 0.00 0.00 90 1012.0
20260507112006 65 51 4.0 9.0 0.00 0.00 0.00 90 1012.1
20260507111905 65 0 4.0 9.0 0.00 0.00 0.00 90 1012.1
20260507111805 65 0 4.0 9.0 0.00 0.00 0.00 90 1012.2
20260507111705 65 0 4.0 9.0 0.00 0.00 0.00 90 1012.2
20260507111606 65 0 4.0 9.0 0.00 0.00 0.00 90 1012.2
20260507111506 65 0 4.0 9.0 0.00 0.00 0.00 90 1012.2
20260507111405 65 1 5.0 9.0 0.00 0.00 0.00 90 1012.1
20260507111306 65 1 5.0 9.0 0.00 0.00 0.00 90 1012.1
20260507111205 65 3 4.0 9.0 0.00 0.00 0.00 90 1012.0
20260507111105 65 0 4.0 7.0 0.00 0.00 0.00 90 1012.0
20260507111004 66 3 5.0 7.0 0.00 0.00 0.00 90 1011.9
20260507110906 66 4 4.0 7.0 0.00 0.00 0.00 90 1011.8
20260507110805 66 3 3.0 5.0 0.00 0.00 0.00 90 1011.8
20260507110705 66 6 3.0 5.0 0.00 0.00 0.00 90 1011.9
20260507110606 66 49 3.0 5.0 0.00 0.00 0.00 90 1011.9
20260507110504 66 4 4.0 5.0 0.00 0.00 0.00 90 1011.9
20260507110406 66 3 3.0 5.0 0.00 0.00 0.00 90 1012.0
20260507110306 66 0 2.0 5.0 0.00 0.00 0.00 90 1012.0
20260507110207 66 52 2.0 5.0 0.00 0.00 0.00 90 1012.0
20260507110105 66 0 2.0 5.0 0.00 0.00 0.00 90 1011.9
20260507110005 66 3 3.0 5.0 0.00 0.00 0.00 90 1011.9
20260507105905 66 1 3.0 5.0 0.00 0.00 0.00 90 1011.9
20260507105805 66 1 3.0 5.0 0.00 0.00 0.00 90 1011.9
20260507105705 66 1 3.0 5.0 0.00 0.00 0.00 90 1011.9
20260507105607 66 1 3.0 5.0 0.00 0.00 0.00 90 1012.0
20260507105506 66 4 3.0 5.0 0.00 0.00 0.00 90 1011.9
20260507105405 66 6 2.0 5.0 0.00 0.00 0.00 90 1012.0
20260507105306 66 3 1.0 5.0 0.00 0.00 0.00 90 1011.9
20260507105205 66 3 2.0 5.0 0.00 0.00 0.00 90 1012.0
20260507105104 66 3 2.0 5.0 0.00 0.00 0.00 90 1012.0
20260507105005 66 3 3.0 5.0 0.00 0.00 0.00 90 1011.9
20260507104905 66 3 3.0 6.0 0.00 0.00 0.00 90 1011.8
20260507104805 66 3 2.0 7.0 0.00 0.00 0.00 90 1011.8
20260507104704 66 4 3.0 7.0 0.00 0.00 0.00 90 1011.8
20260507104605 66 4 3.0 7.0 0.00 0.00 0.00 90 1011.9
20260507104506 66 0 2.0 7.0 0.00 0.00 0.00 90 1011.9
20260507104405 66 0 3.0 7.0 0.00 0.00 0.00 90 1012.0
20260507104306 66 6 4.0 7.0 0.00 0.00 0.00 90 1012.0
20260507104205 66 1 3.0 9.0 0.00 0.00 0.00 90 1012.0
20260507104105 66 51 3.0 9.0 0.00 0.00 0.00 90 1012.0
20260507104005 66 3 4.0 9.0 0.00 0.00 0.00 90 1011.8
20260507103904 66 1 5.0 9.0 0.00 0.00 0.00 90 1011.8
20260507103805 66 0 4.0 9.0 0.00 0.00 0.00 90 1011.7
20260507103704 66 0 4.0 9.0 0.00 0.00 0.00 90 1011.7
20260507103604 66 0 3.0 9.0 0.00 0.00 0.00 90 1011.6
20260507103505 66 1 3.0 9.0 0.00 0.00 0.00 90 1011.6
20260507103404 66 1 4.0 9.0 0.00 0.00 0.00 90 1011.6
20260507103305 66 1 5.0 9.0 0.00 0.00 0.00 90 1011.7
20260507103205 66 0 5.0 7.0 0.00 0.00 0.00 90 1011.8
20260507103105 66 49 4.0 7.0 0.00 0.00 0.00 90 1011.7
20260507103004 66 0 4.0 7.0 0.00 0.00 0.00 90 1011.7
20260507102904 66 0 4.0 7.0 0.00 0.00 0.00 90 1011.7
20260507102805 66 51 2.0 7.0 0.00 0.00 0.00 90 1011.8
20260507102704 66 51 2.0 7.0 0.00 0.00 0.00 90 1011.8
20260507102604 66 0 4.0 7.0 0.00 0.00 0.00 90 1011.7
20260507102504 66 51 3.0 7.0 0.00 0.00 0.00 90 1011.6
20260507102404 66 0 3.0 9.0 0.00 0.00 0.00 90 1011.5
20260507102306 66 0 4.0 9.0 0.00 0.00 0.00 90 1011.5
20260507102203 66 4 4.0 10.0 0.00 0.00 0.00 90 1011.4
20260507102105 66 1 4.0 10.0 0.00 0.00 0.00 90 1011.5
20260507102007 66 4 4.0 10.0 0.00 0.00 0.00 90 1011.5
20260507101904 66 4 4.0 10.0 0.00 0.00 0.00 90 1011.6
20260507101805 66 0 4.0 10.0 0.00 0.00 0.00 90 1011.7
20260507101706 66 1 4.0 10.0 0.00 0.00 0.00 90 1011.7
20260507101604 66 0 5.0 10.0 0.00 0.00 0.00 90 1011.7
20260507101503 66 0 5.0 10.0 0.00 0.00 0.00 90 1011.7
20260507101404 66 0 5.0 10.0 0.00 0.00 0.00 90 1011.7
20260507101304 66 0 5.0 10.0 0.00 0.00 0.00 90 1011.7
20260507101206 66 0 4.0 9.0 0.00 0.00 0.00 90 1011.6
20260507101106 66 3 3.0 10.0 0.00 0.00 0.00 90 1011.7
20260507101005 66 0 3.0 10.0 0.00 0.00 0.00 90 1011.6
20260507100904 66 51 3.0 10.0 0.00 0.00 0.00 90 1011.6
20260507100804 66 51 3.0 10.0 0.00 0.00 0.00 90 1011.7
20260507100704 66 0 4.0 10.0 0.00 0.00 0.00 90 1011.7
20260507100603 66 1 5.0 11.0 0.00 0.00 0.00 90 1011.7
20260507100503 66 48 4.0 14.0 0.00 0.00 0.00 90 1011.6
20260507100403 66 0 4.0 14.0 0.00 0.00 0.00 90 1011.5
20260507100303 66 0 5.0 14.0 0.00 0.00 0.00 90 1011.5
20260507100203 66 0 5.0 14.0 0.00 0.00 0.00 90 1011.5
20260507100103 66 48 5.0 14.0 0.00 0.00 0.00 90 1011.5
20260507100004 66 0 5.0 14.0 0.00 0.00 0.00 90 1011.4
20260507095903 66 0 5.0 14.0 0.00 0.00 0.00 90 1011.4
20260507095803 66 0 6.0 14.0 0.00 0.00 0.00 90 1011.4
20260507095703 66 0 8.0 14.0 0.00 0.00 0.00 90 1011.5
20260507095603 66 7 8.0 14.0 0.00 0.00 0.00 90 1011.4
20260507095503 66 7 6.0 13.0 0.00 0.00 0.00 90 1011.4
20260507095403 66 0 5.0 10.0 0.00 0.00 0.00 90 1011.3
20260507095306 66 7 4.0 10.0 0.00 0.00 0.00 90 1011.4
20260507095203 66 1 5.0 10.0 0.00 0.00 0.00 90 1011.4
20260507095104 66 6 4.0 10.0 0.00 0.00 0.00 90 1011.3
20260507095004 66 6 4.0 10.0 0.00 0.00 0.00 90 1011.3
20260507094903 66 8 4.0 12.0 0.00 0.00 0.00 90 1011.3
20260507094803 66 3 3.0 12.0 0.00 0.00 0.00 90 1011.3
20260507094703 66 0 3.0 12.0 0.00 0.00 0.00 90 1011.3
20260507094604 66 0 4.0 12.0 0.00 0.00 0.00 90 1011.3
20260507094505 66 1 6.0 12.0 0.00 0.00 0.00 90 1011.2
20260507094403 66 1 6.0 12.0 0.00 0.00 0.00 90 1011.1
20260507094304 66 1 5.0 12.0 0.00 0.00 0.00 90 1011.0
20260507094203 66 7 5.0 12.0 0.00 0.00 0.00 90 1011.0
20260507094103 66 0 7.0 12.0 0.00 0.00 0.00 90 1010.9
20260507094001 66 6 6.0 12.0 0.00 0.00 0.00 90 1011.0
20260507093901 66 1 5.0 11.0 0.00 0.00 0.00 90 1011.0
20260507093758 66 4 6.0 11.0 0.00 0.00 0.00 90 1011.0
20260507093657 66 3 6.0 11.0 0.00 0.00 0.00 90 1011.0
20260507093556 66 8 5.0 11.0 0.00 0.00 0.00 90 1011.1
20260507093455 66 7 5.0 11.0 0.00 0.00 0.00 90 1011.1
20260507093352 66 4 5.0 11.0 0.00 0.00 0.00 90 1011.1
20260507093251 66 7 6.0 11.0 0.00 0.00 0.00 89 1011.1
20260507093149 66 3 7.0 11.0 0.00 0.00 0.00 89 1011.0
20260507093048 66 6 5.0 11.0 0.00 0.00 0.00 89 1010.9
20260507092946 66 3 5.0 11.0 0.00 0.00 0.00 89 1011.1
20260507092846 66 4 6.0 11.0 0.00 0.00 0.00 89 1011.1
20260507092743 66 7 7.0 11.0 0.00 0.00 0.00 89 1011.1
20260507092642 66 3 6.0 11.0 0.00 0.00 0.00 89 1011.1
20260507092542 66 3 5.0 11.0 0.00 0.00 0.00 89 1011.1
20260507092439 66 1 4.0 11.0 0.00 0.00 0.00 89 1011.2
20260507092336 66 47 5.0 11.0 0.00 0.00 0.00 89 1011.2
20260507092235 66 3 6.0 11.0 0.00 0.00 0.00 89 1011.2
20260507092133 66 48 5.0 11.0 0.00 0.00 0.00 89 1011.3
20260507092032 66 0 4.0 11.0 0.00 0.00 0.00 89 1011.3
20260507091930 66 0 5.0 11.0 0.00 0.00 0.00 89 1011.2
20260507091829 66 3 5.0 11.0 0.00 0.00 0.00 89 1011.1
20260507091727 66 4 5.0 11.0 0.00 0.00 0.00 89 1011.1
20260507091626 66 1 7.0 14.0 0.00 0.00 0.00 89 1011.0
20260507091523 66 0 7.0 14.0 0.00 0.00 0.00 89 1011.1
20260507091422 66 3 6.0 14.0 0.00 0.00 0.00 89 1011.0
20260507091321 66 49 6.0 14.0 0.00 0.00 0.00 89 1011.1
20260507091220 66 1 6.0 14.0 0.00 0.00 0.00 89 1011.0
20260507091117 66 1 5.0 14.0 0.00 0.00 0.00 89 1011.1
20260507091018 66 48 6.0 14.0 0.00 0.00 0.00 89 1011.2
20260507090915 66 47 6.0 14.0 0.00 0.00 0.00 89 1011.2
20260507090815 66 1 7.0 14.0 0.00 0.00 0.00 89 1011.3
20260507090712 67 1 7.0 14.0 0.00 0.00 0.00 89 1011.2
20260507090610 67 49 6.0 12.0 0.00 0.00 0.00 89 1011.2
20260507090505 67 48 6.0 12.0 0.00 0.00 0.00 89 1011.3
20260507090404 67 0 5.0 12.0 0.00 0.00 0.00 89 1011.3
20260507090303 67 49 6.0 12.0 0.00 0.00 0.00 89 1011.4
20260507090203 67 0 6.0 12.0 0.00 0.00 0.00 89 1011.3
20260507090105 67 4 5.0 9.0 0.00 0.00 0.00 88 1011.3
20260507090004 67 48 5.0 7.0 0.00 0.00 0.00 88 1011.2
20260507085903 67 3 5.0 10.0 0.00 0.00 0.00 88 1011.2
20260507085803 67 48 4.0 10.0 0.00 0.00 0.00 89 1011.2
20260507085702 67 1 5.0 13.0 0.00 0.00 0.00 88 1011.2
20260507085602 67 48 6.0 13.0 0.00 0.00 0.00 88 1011.2
20260507085503 67 1 6.0 13.0 0.00 0.00 0.00 88 1011.3
20260507085404 67 47 5.0 13.0 0.00 0.00 0.00 88 1011.4
20260507085306 67 49 7.0 13.0 0.00 0.00 0.00 88 1011.5
20260507085202 67 49 7.0 13.0 0.00 0.00 0.00 88 1011.5
20260507085032 67 49 7.0 13.0 0.00 0.00 0.00 88 1011.3
20260507084932 67 49 7.0 13.0 0.00 0.00 0.00 88 1011.3
20260507084830 67 49 8.0 13.0 0.00 0.00 0.00 88 1011.2
20260507084728 67 4 8.0 14.0 0.00 0.00 0.00 88 1011.2
20260507084627 67 51 8.0 14.0 0.00 0.00 0.00 88 1011.2
20260507084525 67 4 7.0 16.0 0.00 0.00 0.00 88 1011.3
20260507084424 67 0 6.0 16.0 0.00 0.00 0.00 88 1011.3
20260507084322 67 49 6.0 16.0 0.00 0.00 0.00 88 1011.4
20260507084220 67 0 7.0 16.0 0.00 0.00 0.00 88 1011.4
20260507084119 67 0 7.0 16.0 0.00 0.00 0.00 88 1011.3
20260507084018 67 6 7.0 16.0 0.00 0.00 0.00 88 1011.3
20260507083916 67 0 8.0 16.0 0.00 0.00 0.00 88 1011.3
20260507083814 67 0 9.0 16.0 0.00 0.00 0.00 88 1011.3
20260507083713 67 0 10.0 16.0 0.00 0.00 0.00 88 1011.3
20260507083612 67 0 9.0 14.0 0.00 0.00 0.00 88 1011.3
20260507083507 67 1 6.0 14.0 0.00 0.00 0.00 88 1011.2
20260507083408 67 1 6.0 14.0 0.00 0.00 0.00 88 1011.2
20260507083308 67 0 8.0 14.0 0.00 0.00 0.00 88 1011.1
20260507083205 67 0 8.0 14.0 0.00 0.00 0.00 88 1011.0
20260507083103 67 4 8.0 14.0 0.00 0.00 0.00 88 1011.0
20260507083004 67 0 9.0 14.0 0.00 0.00 0.00 88 1011.0
20260507082902 67 1 8.0 14.0 0.00 0.00 0.00 88 1011.0
20260507082804 67 1 6.0 14.0 0.00 0.00 0.00 88 1011.0
20260507082703 67 4 5.0 11.0 0.00 0.00 0.00 88 1011.0
20260507082602 67 6 5.0 11.0 0.00 0.00 0.00 88 1011.2
20260507082503 67 0 6.0 11.0 0.00 0.00 0.00 88 1011.2
20260507082402 67 1 6.0 11.0 0.00 0.00 0.00 88 1011.2
20260507082306 67 0 7.0 12.0 0.00 0.00 0.00 88 1011.2
20260507082204 67 1 7.0 12.0 0.00 0.00 0.00 88 1011.3
20260507082103 67 1 6.0 12.0 0.00 0.00 0.00 88 1011.2
20260507082003 67 0 6.0 12.0 0.00 0.00 0.00 88 1011.3
20260507081902 67 4 6.0 12.0 0.00 0.00 0.00 88 1011.2
20260507081802 67 0 5.0 12.0 0.00 0.00 0.00 88 1011.1
20260507081703 67 1 5.0 12.0 0.00 0.00 0.00 87 1011.0
20260507081603 67 0 7.0 12.0 0.00 0.00 0.00 87 1011.0
20260507081504 67 0 7.0 12.0 0.00 0.00 0.00 87 1010.9
20260507081402 67 0 7.0 12.0 0.00 0.00 0.00 87 1011.0
20260507081302 67 0 5.0 11.0 0.00 0.00 0.00 87 1010.9
20260507081202 67 48 5.0 11.0 0.00 0.00 0.00 87 1011.0
20260507081102 67 3 6.0 11.0 0.00 0.00 0.00 87 1010.9
20260507081003 67 1 5.0 11.0 0.00 0.00 0.00 87 1011.0
20260507080903 67 0 6.0 11.0 0.00 0.00 0.00 87 1011.0
20260507080801 67 3 7.0 11.0 0.00 0.00 0.00 87 1011.0
20260507080702 67 0 7.0 11.0 0.00 0.00 0.00 87 1010.9
20260507080602 67 1 6.0 11.0 0.00 0.00 0.00 87 1011.0
20260507080502 67 0 5.0 11.0 0.00 0.00 0.00 87 1011.1
20260507080402 67 4 5.0 11.0 0.00 0.00 0.00 87 1011.0
20260507080303 68 0 5.0 11.0 0.00 0.00 0.00 87 1011.0
20260507080203 67 1 4.0 11.0 0.00 0.00 0.00 87 1011.0
20260507080103 68 0 4.0 11.0 0.00 0.00 0.00 87 1011.0
20260507080003 68 0 4.0 11.0 0.00 0.00 0.00 87 1011.0
20260507075902 68 0 4.0 11.0 0.00 0.00 0.00 87 1011.0
20260507075802 68 0 5.0 11.0 0.00 0.00 0.00 87 1011.0
20260507075702 68 0 6.0 11.0 0.00 0.00 0.00 87 1011.0
20260507075601 68 0 6.0 11.0 0.00 0.00 0.00 87 1011.1
20260507075503 68 0 5.0 10.0 0.00 0.00 0.00 87 1011.2
20260507075403 68 0 5.0 11.0 0.00 0.00 0.00 87 1011.2
20260507075306 68 0 4.0 11.0 0.00 0.00 0.00 87 1011.2
20260507075202 68 0 5.0 11.0 0.00 0.00 0.00 87 1011.2
20260507075104 68 0 6.0 11.0 0.00 0.00 0.00 87 1011.3
20260507075003 68 48 6.0 12.0 0.00 0.00 0.00 87 1011.3
20260507074902 68 0 6.0 12.0 0.00 0.00 0.00 87 1011.2
20260507074804 68 0 6.0 12.0 0.00 0.00 0.00 87 1011.2
20260507074703 68 0 7.0 12.0 0.00 0.00 0.00 87 1011.2
20260507074603 68 0 6.0 12.0 0.00 0.00 0.00 87 1011.2
20260507074502 68 0 6.0 12.0 0.00 0.00 0.00 87 1011.2
20260507074402 68 1 7.0 12.0 0.00 0.00 0.00 87 1011.2
20260507074302 68 0 7.0 12.0 0.00 0.00 0.00 87 1011.3
20260507074202 68 0 7.0 12.0 0.00 0.00 0.00 87 1011.3
20260507074102 68 0 7.0 12.0 0.00 0.00 0.00 87 1011.3
20260507074002 68 3 5.0 9.0 0.00 0.00 0.00 87 1011.3
20260507073903 68 0 4.0 9.0 0.00 0.00 0.00 87 1011.2
20260507073802 68 0 4.0 9.0 0.00 0.00 0.00 87 1011.2
20260507073702 68 3 5.0 9.0 0.00 0.00 0.00 87 1011.2
20260507073603 68 0 5.0 9.0 0.00 0.00 0.00 87 1011.2
20260507073503 68 0 5.0 9.0 0.00 0.00 0.00 87 1011.2
20260507073402 68 0 5.0 9.0 0.00 0.00 0.00 87 1011.2
20260507073302 68 0 4.0 9.0 0.00 0.00 0.00 87 1011.2
20260507073203 68 3 4.0 9.0 0.00 0.00 0.00 87 1011.2
20260507073102 68 7 5.0 9.0 0.00 0.00 0.00 87 1011.2
20260507073002 68 0 5.0 12.0 0.00 0.00 0.00 87 1011.2
20260507072904 68 0 6.0 12.0 0.00 0.00 0.00 87 1011.2
20260507072802 68 0 4.0 12.0 0.00 0.00 0.00 87 1011.2
20260507072703 68 0 4.0 12.0 0.00 0.00 0.00 87 1011.2
20260507072602 68 0 4.0 12.0 0.00 0.00 0.00 87 1011.2
20260507072502 68 0 4.0 12.0 0.00 0.00 0.00 87 1011.3
20260507072402 68 0 4.0 12.0 0.00 0.00 0.00 87 1011.3
20260507072306 68 1 4.0 12.0 0.00 0.00 0.00 87 1011.4
20260507072202 68 0 6.0 12.0 0.00 0.00 0.00 87 1011.5
20260507072101 68 0 6.0 12.0 0.00 0.00 0.00 87 1011.5
20260507072001 68 0 5.0 11.0 0.00 0.00 0.00 87 1011.5
20260507071903 68 0 4.0 11.0 0.00 0.00 0.00 87 1011.6
20260507071802 68 4 4.0 11.0 0.00 0.00 0.00 87 1011.5
20260507071702 68 0 6.0 11.0 0.00 0.00 0.00 86 1011.5
20260507071601 68 0 7.0 11.0 0.00 0.00 0.00 87 1011.5
20260507071500 68 0 6.0 11.0 0.00 0.00 0.00 87 1011.5
20260507071401 68 0 4.0 11.0 0.00 0.00 0.00 87 1011.5
20260507071302 68 0 4.0 11.0 0.00 0.00 0.00 87 1011.6
20260507071159 68 0 4.0 11.0 0.00 0.00 0.00 86 1011.6
20260507071101 68 0 5.0 11.0 0.00 0.00 0.00 86 1011.6
20260507071000 68 0 5.0 11.0 0.00 0.00 0.00 86 1011.6
20260507070859 68 0 6.0 11.0 0.00 0.00 0.00 87 1011.5
20260507070759 68 0 7.0 11.0 0.00 0.00 0.00 86 1011.5
20260507070659 68 0 6.0 12.0 0.00 0.00 0.00 86 1011.4
20260507070556 68 0 6.0 12.0 0.00 0.00 0.00 87 1011.4
20260507070454 68 0 6.0 12.0 0.00 0.00 0.00 87 1011.5
20260507070353 68 0 6.0 12.0 0.00 0.00 0.00 86 1011.4
20260507070250 68 0 6.0 12.0 0.00 0.00 0.00 86 1011.3
20260507070147 68 0 5.0 12.0 0.00 0.00 0.00 86 1011.3
20260507070047 68 0 4.0 12.0 0.00 0.00 0.00 86 1011.4
20260507065947 68 0 4.0 12.0 0.00 0.00 0.00 86 1011.3
20260507065845 68 0 7.0 12.0 0.00 0.00 0.00 86 1011.4
20260507065743 68 0 8.0 12.0 0.00 0.00 0.00 86 1011.4
20260507065641 68 0 6.0 11.0 0.00 0.00 0.00 86 1011.4
20260507065540 68 4 5.0 11.0 0.00 0.00 0.00 86 1011.5
20260507065438 68 0 5.0 11.0 0.00 0.00 0.00 86 1011.5
20260507065337 68 0 7.0 11.0 0.00 0.00 0.00 86 1011.5
20260507065234 68 0 7.0 11.0 0.00 0.00 0.00 86 1011.6
20260507065132 68 0 6.0 11.0 0.00 0.00 0.00 86 1011.7
20260507065031 68 0 5.0 9.0 0.00 0.00 0.00 86 1011.6
20260507064931 68 0 5.0 9.0 0.00 0.00 0.00 86 1011.6
20260507064830 68 0 5.0 9.0 0.00 0.00 0.00 86 1011.5
20260507064732 68 0 4.0 9.0 0.00 0.00 0.00 86 1011.4
20260507064631 68 0 3.0 9.0 0.00 0.00 0.00 86 1011.3
20260507064531 68 0 4.0 9.0 0.00 0.00 0.00 86 1011.3
20260507064431 68 3 4.0 11.0 0.00 0.00 0.00 86 1011.2
20260507064333 68 0 5.0 11.0 0.00 0.00 0.00 86 1011.1
20260507064232 68 0 5.0 11.0 0.00 0.00 0.00 86 1011.2
20260507064131 68 0 5.0 13.0 0.00 0.00 0.00 86 1011.2
20260507064032 68 0 5.0 13.0 0.00 0.00 0.00 86 1011.2
20260507063932 68 0 4.0 13.0 0.00 0.00 0.00 86 1011.2
20260507063832 68 0 4.0 13.0 0.00 0.00 0.00 86 1011.3
20260507063731 68 0 6.0 13.0 0.00 0.00 0.00 86 1011.4
20260507063631 68 0 7.0 13.0 0.00 0.00 0.00 86 1011.4
20260507063532 68 0 6.0 13.0 0.00 0.00 0.00 86 1011.6
20260507063431 68 0 5.0 13.0 0.00 0.00 0.00 86 1011.6
20260507063332 68 0 6.0 13.0 0.00 0.00 0.00 86 1011.6
20260507063231 68 0 5.0 13.0 0.00 0.00 0.00 86 1011.6
20260507063130 68 0 5.0 13.0 0.00 0.00 0.00 86 1011.5
20260507063032 68 0 7.0 13.0 0.00 0.00 0.00 86 1011.5
20260507062933 68 0 7.0 13.0 0.00 0.00 0.00 86 1011.5
20260507062832 68 0 6.0 10.0 0.00 0.00 0.00 86 1011.4
20260507062731 68 0 6.0 10.0 0.00 0.00 0.00 86 1011.4
20260507062632 68 0 6.0 11.0 0.00 0.00 0.00 86 1011.3
20260507062531 68 0 6.0 11.0 0.00 0.00 0.00 86 1011.3
20260507062431 68 7 6.0 11.0 0.00 0.00 0.00 86 1011.2
20260507062333 68 0 5.0 11.0 0.00 0.00 0.00 86 1011.2
20260507062231 68 0 5.0 11.0 0.00 0.00 0.00 86 1011.1
20260507062130 68 0 6.0 11.0 0.00 0.00 0.00 86 1011.1
20260507062029 68 0 5.0 13.0 0.00 0.00 0.00 86 1011.1
20260507061927 68 0 5.0 13.0 0.00 0.00 0.00 86 1011.0
20260507061825 68 0 7.0 13.0 0.00 0.00 0.00 86 1011.1
20260507061723 68 0 7.0 13.0 0.00 0.00 0.00 86 1011.1
20260507061622 68 0 5.0 13.0 0.00 0.00 0.00 86 1011.2
20260507061520 68 1 4.0 13.0 0.00 0.00 0.00 86 1011.2
20260507061419 68 0 6.0 13.0 0.00 0.00 0.00 85 1011.3
20260507061318 68 0 8.0 13.0 0.00 0.00 0.00 85 1011.3
20260507061216 68 1 7.0 13.0 0.00 0.00 0.00 85 1011.3
20260507061114 68 1 6.0 12.0 0.00 0.00 0.00 85 1011.4
20260507061013 68 0 6.0 12.0 0.00 0.00 0.00 85 1011.3
20260507060912 69 0 7.0 13.0 0.00 0.00 0.00 85 1011.3
20260507060810 69 0 6.0 13.0 0.00 0.00 0.00 86 1011.3
20260507060709 69 0 5.0 13.0 0.00 0.00 0.00 86 1011.3
20260507060607 68 0 6.0 13.0 0.00 0.00 0.00 85 1011.3
20260507060506 69 3 7.0 13.0 0.00 0.00 0.00 86 1011.3
20260507060404 69 1 8.0 13.0 0.00 0.00 0.00 86 1011.3
20260507060301 69 0 5.0 13.0 0.00 0.00 0.00 85 1011.2
20260507060201 69 0 5.0 13.0 0.00 0.00 0.00 86 1011.2
20260507060104 69 4 6.0 13.0 0.00 0.00 0.00 85 1011.3
20260507060004 69 0 7.0 13.0 0.00 0.00 0.00 85 1011.3
20260507055903 69 1 7.0 13.0 0.00 0.00 0.00 85 1011.3
20260507055802 69 0 9.0 13.0 0.00 0.00 0.00 85 1011.3
20260507055702 69 0 8.0 13.0 0.00 0.00 0.00 85 1011.3
20260507055604 69 0 6.0 12.0 0.00 0.00 0.00 85 1011.3
20260507055502 69 0 5.0 12.0 0.00 0.00 0.00 85 1011.3
20260507055402 69 0 5.0 12.0 0.00 0.00 0.00 85 1011.3
20260507055305 69 0 5.0 12.0 0.00 0.00 0.00 85 1011.3
20260507055202 69 0 5.0 12.0 0.00 0.00 0.00 85 1011.3
20260507055103 69 4 6.0 12.0 0.00 0.00 0.00 85 1011.3
20260507055003 69 0 5.0 12.0 0.00 0.00 0.00 85 1011.3
20260507054902 69 1 5.0 12.0 0.00 0.00 0.00 85 1011.2
20260507054802 69 0 7.0 12.0 0.00 0.00 0.00 85 1011.2
20260507054702 69 0 6.0 12.0 0.00 0.00 0.00 85 1011.1
20260507054602 69 0 5.0 12.0 0.00 0.00 0.00 85 1011.1
20260507054503 69 0 5.0 12.0 0.00 0.00 0.00 85 1011.0
20260507054402 69 0 5.0 12.0 0.00 0.00 0.00 85 1011.0
20260507054303 69 0 6.0 12.0 0.00 0.00 0.00 85 1010.9
20260507054202 69 0 5.0 12.0 0.00 0.00 0.00 85 1011.0
20260507054102 69 0 4.0 12.0 0.00 0.00 0.00 85 1010.9
20260507054004 69 0 5.0 12.0 0.00 0.00 0.00 85 1010.9
20260507053903 69 1 6.0 12.0 0.00 0.00 0.00 85 1010.9
20260507053802 69 0 5.0 12.0 0.00 0.00 0.00 85 1011.0
20260507053703 69 0 6.0 12.0 0.00 0.00 0.00 85 1011.0
20260507053603 69 3 6.0 12.0 0.00 0.00 0.00 85 1011.0
20260507053504 69 0 5.0 12.0 0.00 0.00 0.00 85 1011.0
20260507053403 69 0 6.0 12.0 0.00 0.00 0.00 85 1011.0
20260507053304 69 0 6.0 12.0 0.00 0.00 0.00 85 1011.0
20260507053203 69 0 5.0 12.0 0.00 0.00 0.00 85 1011.0
20260507053103 69 0 4.0 12.0 0.00 0.00 0.00 85 1010.9
20260507053003 69 0 6.0 12.0 0.00 0.00 0.00 85 1010.9
20260507052902 69 0 6.0 12.0 0.00 0.00 0.00 85 1010.9
20260507052803 69 0 6.0 12.0 0.00 0.00 0.00 85 1011.0
20260507052701 69 0 6.0 12.0 0.00 0.00 0.00 85 1011.0
20260507052603 69 0 6.0 12.0 0.00 0.00 0.00 85 1011.1
20260507052504 69 0 6.0 13.0 0.00 0.00 0.00 85 1011.0
20260507052402 69 0 7.0 13.0 0.00 0.00 0.00 85 1011.0
20260507052305 69 0 7.0 13.0 0.00 0.00 0.00 85 1011.0
20260507052202 69 0 7.0 13.0 0.00 0.00 0.00 85 1011.0
20260507052102 69 0 6.0 13.0 0.00 0.00 0.00 85 1011.0
20260507052003 69 0 5.0 13.0 0.00 0.00 0.00 85 1011.1
20260507051904 69 0 6.0 13.0 0.00 0.00 0.00 85 1011.0
20260507051803 69 0 6.0 13.0 0.00 0.00 0.00 85 1011.0
20260507051702 69 4 7.0 13.0 0.00 0.00 0.00 85 1011.1
20260507051603 70 0 5.0 13.0 0.00 0.00 0.00 85 1011.1
20260507051504 69 0 4.0 11.0 0.00 0.00 0.00 85 1011.2
20260507051402 70 0 6.0 11.0 0.00 0.00 0.00 85 1011.1
20260507051302 70 0 7.0 11.0 0.00 0.00 0.00 85 1011.2
20260507051203 70 0 7.0 11.0 0.00 0.00 0.00 85 1011.2
20260507051102 70 0 6.0 11.0 0.00 0.00 0.00 85 1011.2
20260507051003 70 0 6.0 11.0 0.00 0.00 0.00 85 1011.1
20260507050905 70 3 5.0 11.0 0.00 0.00 0.00 85 1011.2
20260507050802 70 0 5.0 11.0 0.00 0.00 0.00 85 1011.1
20260507050703 70 3 4.0 11.0 0.00 0.00 0.00 85 1011.1
20260507050602 70 1 4.0 11.0 0.00 0.00 0.00 85 1011.0
20260507050501 70 0 4.0 11.0 0.00 0.00 0.00 85 1011.0
20260507050401 70 0 5.0 11.0 0.00 0.00 0.00 85 1011.1
20260507050300 70 0 7.0 11.0 0.00 0.00 0.00 85 1011.1
20260507050157 70 0 6.0 11.0 0.00 0.00 0.00 86 1011.0
20260507050056 70 0 5.0 11.0 0.00 0.00 0.00 86 1011.0
20260507045957 70 0 5.0 10.0 0.00 0.00 0.00 86 1011.1
20260507045857 70 0 5.0 10.0 0.00 0.00 0.00 86 1011.0
20260507045757 70 0 4.0 10.0 0.00 0.00 0.00 86 1011.1
20260507045656 70 0 4.0 10.0 0.00 0.00 0.00 86 1011.1
20260507045555 70 0 4.0 10.0 0.00 0.00 0.00 86 1011.1
20260507045457 70 0 4.0 10.0 0.00 0.00 0.00 86 1011.1
20260507045356 70 0 4.0 10.0 0.00 0.00 0.00 86 1011.1
20260507045256 70 0 6.0 10.0 0.00 0.00 0.00 85 1011.0
20260507045156 70 0 7.0 10.0 0.00 0.00 0.00 85 1011.1
20260507045057 70 0 7.0 10.0 0.00 0.00 0.00 85 1011.1
20260507044956 70 0 6.0 11.0 0.00 0.00 0.00 85 1011.1
20260507044856 70 0 4.0 11.0 0.00 0.00 0.00 85 1011.1
20260507044757 70 0 3.0 11.0 0.00 0.00 0.00 85 1011.0
20260507044656 70 4 3.0 11.0 0.00 0.00 0.00 85 1011.0
20260507044556 70 0 4.0 11.0 0.00 0.00 0.00 85 1011.0
20260507044457 70 0 5.0 11.0 0.00 0.00 0.00 85 1011.0
20260507044356 70 0 5.0 11.0 0.00 0.00 0.00 85 1010.9
20260507044256 70 0 5.0 14.0 0.00 0.00 0.00 85 1010.8
20260507044156 70 0 6.0 14.0 0.00 0.00 0.00 85 1010.8
20260507044057 70 0 6.0 14.0 0.00 0.00 0.00 85 1010.8
20260507043958 70 0 6.0 14.0 0.00 0.00 0.00 85 1010.8
20260507043856 70 4 6.0 14.0 0.00 0.00 0.00 85 1010.7
20260507043756 71 3 6.0 14.0 0.00 0.00 0.00 85 1010.6
20260507043657 71 8 6.0 14.0 0.00 0.00 0.00 85 1010.6
20260507043557 71 6 6.0 14.0 0.00 0.00 0.00 85 1010.6
20260507043456 71 0 8.0 14.0 0.00 0.00 0.00 85 1010.7
20260507043357 71 0 8.0 14.0 0.00 0.00 0.00 85 1010.6
20260507043256 71 0 5.0 12.0 0.00 0.00 0.00 85 1010.7
20260507043155 71 0 5.0 12.0 0.00 0.00 0.00 85 1010.8
20260507043057 71 0 6.0 12.0 0.00 0.00 0.00 85 1010.9
20260507042956 71 68 6.0 12.0 0.00 0.00 0.00 85 1010.8
20260507042856 71 1 6.0 12.0 0.00 0.00 0.00 85 1011.0
20260507042756 71 0 7.0 12.0 0.00 0.00 0.00 85 1010.9
20260507042658 71 0 7.0 12.0 0.00 0.00 0.00 85 1010.9
20260507042556 71 1 6.0 12.0 0.00 0.00 0.00 85 1010.9
20260507042458 71 1 5.0 10.0 0.00 0.00 0.00 85 1010.9
20260507042357 71 0 4.0 10.0 0.00 0.00 0.00 85 1011.0
20260507042255 71 0 4.0 10.0 0.00 0.00 0.00 85 1011.0
20260507042156 71 0 3.0 10.0 0.00 0.00 0.00 85 1011.1
20260507042053 71 0 4.0 11.0 0.00 0.00 0.00 85 1011.1
20260507041952 71 0 5.0 11.0 0.00 0.00 0.00 85 1011.0
20260507041850 71 0 5.0 11.0 0.00 0.00 0.00 85 1011.0
20260507041749 71 0 5.0 11.0 0.00 0.00 0.00 85 1011.0
20260507041647 71 0 4.0 12.0 0.00 0.00 0.00 85 1011.0
20260507041546 71 1 5.0 12.0 0.00 0.00 0.00 85 1010.9
20260507041446 71 0 6.0 12.0 0.00 0.00 0.00 85 1011.0
20260507041345 71 0 6.0 12.0 0.00 0.00 0.00 85 1011.0
20260507041242 71 0 7.0 12.0 0.00 0.00 0.00 85 1011.0
20260507041141 71 0 6.0 12.0 0.00 0.00 0.00 85 1011.0
20260507041040 71 0 6.0 12.0 0.00 0.00 0.00 85 1011.0
20260507040939 71 0 7.0 12.0 0.00 0.00 0.00 85 1011.0
20260507040836 71 0 7.0 12.0 0.00 0.00 0.00 85 1011.0
20260507040737 71 0 6.0 12.0 0.00 0.00 0.00 85 1011.0
20260507040635 71 0 6.0 12.0 0.00 0.00 0.00 85 1011.1
20260507040531 71 0 7.0 12.0 0.00 0.00 0.00 85 1011.1
20260507040433 71 0 7.0 12.0 0.00 0.00 0.00 85 1011.0
20260507040333 71 0 7.0 12.0 0.00 0.00 0.00 85 1011.0
20260507040233 71 0 7.0 14.0 0.00 0.00 0.00 85 1011.0
20260507040130 71 0 8.0 14.0 0.00 0.00 0.00 85 1011.0
20260507040032 71 0 7.0 14.0 0.00 0.00 0.00 85 1011.0
20260507035932 71 0 6.0 14.0 0.00 0.00 0.00 85 1011.0
20260507035830 71 0 6.0 14.0 0.00 0.00 0.00 85 1011.0
20260507035731 71 0 5.0 14.0 0.00 0.00 0.00 85 1011.0
20260507035631 71 0 4.0 14.0 0.00 0.00 0.00 85 1010.9
20260507035532 71 0 4.0 14.0 0.00 0.00 0.00 85 1010.9
20260507035432 71 0 6.0 14.0 0.00 0.00 0.00 85 1010.9
20260507035330 72 0 7.0 14.0 0.00 0.00 0.00 85 1010.8
20260507035232 71 0 5.0 13.0 0.00 0.00 0.00 86 1010.9
20260507035131 72 0 5.0 13.0 0.00 0.00 0.00 86 1010.8
20260507035031 72 0 7.0 13.0 0.00 0.00 0.00 86 1010.8
20260507034932 72 0 7.0 13.0 0.00 0.00 0.00 86 1010.8
20260507034831 72 0 6.0 13.0 0.00 0.00 0.00 86 1010.8
20260507034730 72 3 5.0 13.0 0.00 0.00 0.00 86 1010.8
20260507034632 72 0 6.0 13.0 0.00 0.00 0.00 86 1010.8
20260507034531 72 0 7.0 13.0 0.00 0.00 0.00 86 1010.7
20260507034431 72 0 8.0 13.0 0.00 0.00 0.00 86 1010.8
20260507034328 72 3 8.0 13.0 0.00 0.00 0.00 86 1010.7
20260507034224 72 0 7.0 13.0 0.00 0.00 0.00 86 1010.6
20260507034123 72 0 7.0 12.0 0.00 0.00 0.00 86 1010.7
20260507034020 72 0 7.0 12.0 0.00 0.00 0.00 86 1010.6
20260507033920 72 0 5.0 12.0 0.00 0.00 0.00 86 1010.6
20260507033814 72 0 6.0 12.0 0.00 0.00 0.00 86 1010.6
20260507033715 72 0 7.0 12.0 0.00 0.00 0.00 86 1010.6
20260507033613 72 0 7.0 12.0 0.00 0.00 0.00 86 1010.5
20260507033511 72 0 7.0 12.0 0.00 0.00 0.00 86 1010.5
20260507033406 72 0 6.0 12.0 0.00 0.00 0.00 86 1010.4
20260507033305 72 0 5.0 11.0 0.00 0.00 0.00 86 1010.3
20260507033202 72 0 6.0 11.0 0.00 0.00 0.00 86 1010.4
20260507033102 72 1 6.0 11.0 0.00 0.00 0.00 86 1010.4
20260507033002 72 0 6.0 11.0 0.00 0.00 0.00 86 1010.3
20260507032903 72 0 6.0 11.0 0.00 0.00 0.00 86 1010.3
20260507032802 72 0 5.0 11.0 0.00 0.00 0.00 86 1010.3
20260507032702 72 0 5.0 10.0 0.00 0.00 0.00 86 1010.3
20260507032604 72 0 5.0 10.0 0.00 0.00 0.00 86 1010.3
20260507032504 72 0 4.0 10.0 0.00 0.00 0.00 86 1010.3
20260507032402 72 0 4.0 10.0 0.00 0.00 0.00 87 1010.3
20260507032305 72 0 5.0 11.0 0.00 0.00 0.00 86 1010.1
20260507032203 72 0 6.0 11.0 0.00 0.00 0.00 87 1010.2
20260507032102 72 0 5.0 11.0 0.00 0.00 0.00 87 1010.1
20260507032003 72 0 5.0 11.0 0.00 0.00 0.00 87 1010.2
20260507031903 72 0 4.0 11.0 0.00 0.00 0.00 87 1010.2
20260507031802 72 0 4.0 12.0 0.00 0.00 0.00 87 1010.2
20260507031702 72 0 4.0 12.0 0.00 0.00 0.00 87 1010.1
20260507031603 72 0 6.0 12.0 0.00 0.00 0.00 87 1010.0
20260507031503 72 0 6.0 12.0 0.00 0.00 0.00 87 1010.0
20260507031404 72 0 6.0 12.0 0.00 0.00 0.00 87 1010.0
20260507031304 72 0 5.0 12.0 0.00 0.00 0.00 87 1010.1
20260507031203 72 0 5.0 12.0 0.00 0.00 0.00 87 1010.0
20260507031102 72 0 6.0 12.0 0.00 0.00 0.00 87 1009.9
20260507031002 72 0 7.0 12.0 0.00 0.00 0.00 87 1009.9
20260507030903 72 0 8.0 12.0 0.00 0.00 0.00 87 1009.9
20260507030802 72 0 7.0 12.0 0.00 0.00 0.00 87 1009.9
20260507030702 73 0 6.0 12.0 0.00 0.00 0.00 87 1009.9
20260507030604 73 0 6.0 12.0 0.00 0.00 0.00 87 1009.8
20260507030503 73 0 7.0 11.0 0.00 0.00 0.00 87 1009.8
20260507030402 73 0 8.0 11.0 0.00 0.00 0.00 88 1009.8
20260507030302 73 0 6.0 11.0 0.00 0.00 0.00 88 1009.8
20260507030204 73 0 5.0 10.0 0.00 0.00 0.00 88 1009.8
20260507030003 73 0 6.0 10.0 0.00 0.00 0.00 88 1009.8
20260507025903 73 0 5.0 10.0 0.00 0.00 0.00 88 1009.8
20260507025802 73 0 5.0 10.0 0.00 0.00 0.00 88 1009.7
20260507025702 73 0 6.0 10.0 0.00 0.00 0.00 88 1009.7
20260507025603 73 0 6.0 10.0 0.00 0.00 0.00 88 1009.7
20260507025504 73 0 6.0 10.0 0.00 0.00 0.00 88 1009.7
20260507025402 73 0 5.0 10.0 0.00 0.00 0.00 88 1009.6
20260507025306 73 0 6.0 10.0 0.00 0.00 0.00 88 1009.6
20260507025203 73 0 8.0 10.0 0.00 0.00 0.00 88 1009.6
20260507025103 73 0 6.0 10.0 0.00 0.00 0.00 88 1009.6
20260507025003 73 0 6.0 10.0 0.00 0.00 0.00 88 1009.6
20260507024904 73 0 6.0 10.0 0.00 0.00 0.00 88 1009.6
20260507024803 73 0 6.0 10.0 0.00 0.00 0.00 88 1009.4
20260507024702 73 0 5.0 9.0 0.00 0.00 0.00 89 1009.5
20260507024602 73 0 5.0 9.0 0.00 0.00 0.00 89 1009.4
20260507024503 73 0 5.0 9.0 0.00 0.00 0.00 89 1009.3
20260507024403 73 0 5.0 9.0 0.00 0.00 0.00 89 1009.3
20260507024302 73 0 5.0 10.0 0.00 0.00 0.00 89 1009.3
20260507024203 73 0 5.0 10.0 0.00 0.00 0.00 89 1009.2
20260507024103 73 0 6.0 10.0 0.00 0.00 0.00 89 1009.3
20260507024002 74 0 6.0 10.0 0.00 0.00 0.00 89 1009.2
20260507023903 74 0 5.0 10.0 0.00 0.00 0.00 89 1009.2
20260507023802 74 0 4.0 10.0 0.00 0.00 0.00 89 1009.1
20260507023703 74 0 4.0 10.0 0.00 0.00 0.00 89 1009.1
20260507023602 74 0 5.0 10.0 0.00 0.00 0.00 89 1009.1
20260507023504 74 0 5.0 10.0 0.00 0.00 0.00 89 1009.0
20260507023402 74 0 6.0 10.0 0.00 0.00 0.00 89 1009.0
20260507023303 74 0 6.0 9.0 0.00 0.00 0.00 89 1009.0
20260507023203 74 0 5.0 10.0 0.00 0.00 0.00 89 1009.0
20260507023103 74 0 5.0 10.0 0.00 0.00 0.00 89 1009.0
20260507023002 74 0 5.0 10.0 0.00 0.00 0.00 89 1009.0
20260507022902 74 0 5.0 10.0 0.00 0.00 0.00 89 1008.9
20260507022802 74 0 5.0 10.0 0.00 0.00 0.00 89 1008.9
20260507022703 74 0 4.0 10.0 0.00 0.00 0.00 89 1008.9
20260507022602 74 0 5.0 10.0 0.00 0.00 0.00 89 1008.8
20260507022502 74 0 5.0 10.0 0.00 0.00 0.00 89 1008.8
20260507022402 74 0 5.0 10.0 0.00 0.00 0.00 89 1008.8
20260507022306 74 0 6.0 10.0 0.00 0.00 0.00 89 1008.9
20260507022202 74 0 6.0 10.0 0.00 0.00 0.00 89 1009.0
20260507022102 74 0 4.0 11.0 0.00 0.00 0.00 89 1008.9
20260507022003 74 305 4.0 11.0 0.00 0.00 0.00 89 1008.9
20260507021902 74 316 4.0 11.0 0.00 0.00 0.00 89 1008.9
20260507021804 74 323 5.0 11.0 0.00 0.00 0.00 89 1008.9
20260507021702 74 293 4.0 11.0 0.00 0.00 0.00 89 1008.8
20260507021601 74 316 3.0 11.0 0.00 0.00 0.00 89 1008.8
20260507021503 74 326 4.0 11.0 0.00 0.00 0.00 89 1008.8
20260507021404 74 329 6.0 11.0 0.00 0.00 0.00 89 1008.8
20260507021302 74 319 6.0 11.0 0.00 0.00 0.00 89 1008.8
20260507021202 74 320 7.0 11.0 0.00 0.00 0.00 89 1008.8
20260507021103 74 310 7.0 11.0 0.00 0.00 0.00 89 1008.8
20260507021002 74 317 7.0 11.0 0.00 0.00 0.00 89 1008.7
20260507020902 74 329 6.0 11.0 0.00 0.00 0.00 89 1008.7
20260507020800 74 317 6.0 13.0 0.00 0.00 0.00 89 1008.7
20260507020659 75 305 6.0 13.0 0.00 0.00 0.00 89 1008.7
20260507020556 75 300 6.0 13.0 0.00 0.00 0.00 89 1008.7
20260507020455 75 310 5.0 13.0 0.00 0.00 0.00 89 1008.6
20260507020355 75 307 5.0 13.0 0.00 0.00 0.00 89 1008.6
20260507020254 75 313 6.0 13.0 0.00 0.00 0.00 89 1008.6
20260507020154 75 327 6.0 13.0 0.00 0.00 0.00 89 1008.6
20260507020055 75 292 6.0 13.0 0.00 0.00 0.00 89 1008.6
20260507015953 75 6 7.0 13.0 0.00 0.00 0.00 89 1008.5
20260507015852 75 0 6.0 13.0 0.00 0.00 0.00 89 1008.5
20260507015753 75 3 5.0 12.0 0.00 0.00 0.00 89 1008.5
20260507015653 75 334 5.0 12.0 0.00 0.00 0.00 89 1008.5
20260507015553 75 326 6.0 12.0 0.00 0.00 0.00 89 1008.5
20260507015453 76 3 5.0 12.0 0.00 0.00 0.00 89 1008.5
20260507015353 76 244 5.0 12.0 0.00 0.00 0.00 89 1008.5
20260507015252 76 4 4.0 12.0 0.00 0.00 0.00 89 1008.5
20260507015154 76 10 4.0 12.0 0.00 0.00 0.00 89 1008.5
20260507015054 76 354 6.0 12.0 0.00 0.00 0.00 89 1008.4
20260507014952 76 353 5.0 12.0 0.00 0.00 0.00 89 1008.5
20260507014854 76 0 4.0 10.0 0.00 0.00 0.00 89 1008.5
20260507014753 76 340 4.0 10.0 0.00 0.00 0.00 89 1008.5
20260507014654 76 314 4.0 10.0 0.00 0.00 0.00 89 1008.4
20260507014553 76 340 4.0 11.0 0.00 0.00 0.00 89 1008.5
20260507014452 76 321 4.0 11.0 0.00 0.00 0.00 89 1008.4
20260507014353 76 316 4.0 11.0 0.00 0.00 0.00 89 1008.4
20260507014252 76 321 5.0 11.0 0.00 0.00 0.00 89 1008.4
20260507014152 76 319 5.0 11.0 0.00 0.00 0.00 89 1008.4
20260507014054 76 341 5.0 11.0 0.00 0.00 0.00 90 1008.4
20260507013953 76 310 5.0 11.0 0.00 0.00 0.00 90 1008.3
20260507013852 76 330 5.0 11.0 0.00 0.00 0.00 89 1008.4
20260507013754 76 338 6.0 11.0 0.00 0.00 0.00 89 1008.3
20260507013654 76 350 7.0 11.0 0.00 0.00 0.00 90 1008.3
20260507013552 76 350 6.0 9.0 0.00 0.00 0.00 90 1008.3
20260507013453 76 344 5.0 9.0 0.00 0.00 0.00 90 1008.3
20260507013353 76 323 5.0 9.0 0.00 0.00 0.00 90 1008.3
20260507013252 76 338 4.0 9.0 0.00 0.00 0.00 89 1008.3
20260507013151 76 329 5.0 9.0 0.00 0.00 0.00 89 1008.3
20260507013052 76 314 6.0 9.0 0.00 0.00 0.00 89 1008.2
20260507012955 76 337 6.0 9.0 0.00 0.00 0.00 89 1008.2
20260507012852 76 327 5.0 9.0 0.00 0.00 0.00 89 1008.2
20260507012752 76 319 4.0 9.0 0.00 0.00 0.00 89 1008.2
20260507012654 76 331 4.0 9.0 0.00 0.00 0.00 89 1008.2
20260507012553 76 319 4.0 10.0 0.00 0.00 0.00 89 1008.1
20260507012452 76 331 4.0 13.0 0.00 0.00 0.00 89 1008.0
20260507012352 76 345 4.0 13.0 0.00 0.00 0.00 89 1008.0
20260507012252 76 330 4.0 13.0 0.00 0.00 0.00 89 1008.0
20260507012151 76 316 4.0 13.0 0.00 0.00 0.00 89 1007.9
20260507012051 77 350 5.0 13.0 0.00 0.00 0.00 89 1007.9
20260507011951 77 319 4.0 13.0 0.00 0.00 0.00 89 1007.8
20260507011852 77 338 4.0 13.0 0.00 0.00 0.00 88 1007.8
20260507011752 77 337 5.0 13.0 0.00 0.00 0.00 88 1007.8
20260507011652 77 336 7.0 13.0 0.00 0.00 0.00 88 1007.7
20260507011553 77 334 6.0 13.0 0.00 0.00 0.00 88 1007.7
20260507011452 78 288 5.0 13.0 0.00 0.00 0.00 88 1007.7
20260507011352 78 310 7.0 13.0 0.00 0.00 0.00 87 1007.7
20260507011252 78 313 8.0 13.0 0.00 0.00 0.00 87 1007.7
20260507011151 78 313 9.0 13.0 0.00 0.00 0.00 87 1007.7
20260507011052 79 309 8.0 13.0 0.00 0.00 0.00 86 1007.7
20260507010951 79 320 8.0 13.0 0.00 0.00 0.00 85 1007.6
20260507010852 80 282 7.0 13.0 0.00 0.00 0.00 85 1007.7
20260507010751 80 283 7.0 13.0 0.00 0.00 0.00 85 1007.6
20260507010651 81 327 7.0 13.0 0.00 0.00 0.00 85 1007.5
20260507010553 82 300 8.0 13.0 0.00 0.00 0.00 86 1007.5
20260507010452 82 312 6.0 13.0 0.00 0.00 0.00 86 1007.5
20260507010351 82 330 2.0 7.0 0.00 0.00 0.00 86 1007.4
20260507010251 82 17 0.0 3.0 0.00 0.00 0.00 86 1007.3
20260507010153 82 114 0.0 3.0 0.00 0.00 0.00 86 1007.3
20260507010054 82 114 1.0 4.0 0.00 0.00 0.00 86 1007.3
20260507005951 82 114 2.0 4.0 0.00 0.00 0.00 86 1007.3
20260507005850 82 134 1.0 4.0 0.00 0.00 0.00 86 1007.2
20260507005748 82 141 1.0 4.0 0.00 0.00 0.00 86 1007.3
20260507005645 82 142 0.0 5.0 0.00 0.00 0.00 86 1007.2
20260507005542 82 141 0.0 5.0 0.00 0.00 0.00 86 1007.2
20260507005441 82 141 1.0 6.0 0.00 0.00 0.00 86 1007.2
20260507005339 82 141 2.0 6.0 0.00 0.00 0.00 86 1007.1
20260507005238 82 89 3.0 6.0 0.00 0.00 0.00 86 1007.0
20260507005136 82 90 2.0 6.0 0.00 0.00 0.00 86 1007.0
20260507005035 82 87 1.0 6.0 0.00 0.00 0.00 86 1007.0
20260507004934 82 85 2.0 6.0 0.00 0.00 0.00 86 1006.9
20260507004831 82 148 2.0 6.0 0.00 0.00 0.00 86 1006.9
20260507004730 82 140 3.0 6.0 0.00 0.00 0.00 86 1006.9
20260507004631 82 110 4.0 6.0 0.00 0.00 0.00 86 1007.0
20260507004533 82 109 5.0 6.0 0.00 0.00 0.00 86 1006.9
20260507004431 82 109 4.0 5.0 0.00 0.00 0.00 86 1006.9
20260507004331 82 123 2.0 5.0 0.00 0.00 0.00 86 1006.9
20260507004230 82 114 2.0 5.0 0.00 0.00 0.00 86 1006.9
20260507004132 82 106 2.0 5.0 0.00 0.00 0.00 86 1006.9
20260507004032 83 135 2.0 5.0 0.00 0.00 0.00 86 1006.9
20260507003931 83 117 2.0 5.0 0.00 0.00 0.00 86 1006.9
20260507003833 83 154 3.0 5.0 0.00 0.00 0.00 86 1006.8
20260507003732 83 124 3.0 5.0 0.00 0.00 0.00 86 1006.8
20260507003631 83 120 2.0 5.0 0.00 0.00 0.00 86 1006.8
20260507003530 83 151 1.0 5.0 0.00 0.00 0.00 86 1006.8
20260507003431 83 97 2.0 5.0 0.00 0.00 0.00 86 1006.8
20260507003331 83 104 2.0 5.0 0.00 0.00 0.00 86 1006.8
20260507003231 83 102 2.0 5.0 0.00 0.00 0.00 86 1006.8
20260507003133 83 100 3.0 5.0 0.00 0.00 0.00 86 1006.8
20260507003032 83 78 3.0 5.0 0.00 0.00 0.00 86 1006.7
20260507002929 83 76 1.0 5.0 0.00 0.00 0.00 86 1006.7
20260507002828 83 68 0.0 5.0 0.00 0.00 0.00 86 1006.7
20260507002723 82 59 0.0 5.0 0.00 0.00 0.00 86 1006.7
20260507002621 82 30 1.0 5.0 0.00 0.00 0.00 86 1006.8
20260507002520 82 30 3.0 5.0 0.00 0.00 0.00 86 1006.7
20260507002416 82 48 3.0 5.0 0.00 0.00 0.00 86 1006.7
20260507002315 82 48 2.0 5.0 0.00 0.00 0.00 86 1006.7
20260507002215 82 31 0.0 0.0 0.00 0.00 0.00 86 1006.7
20260507002112 82 76 0.0 1.0 0.00 0.00 0.00 86 1006.7
20260507002011 82 76 0.0 1.0 0.00 0.00 0.00 86 1006.7
20260507001909 82 76 0.0 2.0 0.00 0.00 0.00 86 1006.8
20260507001807 82 76 0.0 2.0 0.00 0.00 0.00 86 1006.7
20260507001706 82 86 0.0 4.0 0.00 0.00 0.00 86 1006.7
20260507001604 82 86 0.0 5.0 0.00 0.00 0.00 86 1006.7
20260507001505 82 86 0.0 5.0 0.00 0.00 0.00 86 1006.7
20260507001404 83 86 0.0 5.0 0.00 0.00 0.00 86 1006.7
20260507001302 83 86 0.0 5.0 0.00 0.00 0.00 86 1006.6
20260507001203 83 86 0.0 5.0 0.00 0.00 0.00 85 1006.6
20260507001102 83 83 1.0 5.0 0.00 0.00 0.00 85 1006.6
20260507001002 83 79 1.0 5.0 0.00 0.00 0.00 85 1006.6
20260507000902 83 79 2.0 5.0 0.00 0.00 0.00 85 1006.6
20260507000804 83 80 3.0 5.0 0.00 0.00 0.00 85 1006.7
20260507000703 83 76 3.0 5.0 0.00 0.00 0.00 85 1006.7
20260507000602 83 94 2.0 5.0 0.00 0.00 0.00 84 1006.6
20260507000503 83 44 2.0 5.0 0.00 0.00 0.00 84 1006.5
20260507000402 84 25 3.0 5.0 0.00 0.00 0.00 83 1006.4
20260507000306 84 31 2.0 5.0 0.00 0.00 0.00 83 1006.4
20260507000204 84 0 2.0 5.0 0.00 0.00 0.00 83 1006.5
20260507000002 84 0 3.0 5.0 0.00 0.00 0.00 82 1006.6
20260506235903 85 8 3.0 9.0 0.00 0.00 0.00 82 1006.6
20260506235804 85 4 2.0 9.0 0.00 0.00 0.00 81 1006.6
20260506235703 85 327 1.0 9.0 0.00 0.00 0.00 81 1006.6
20260506235603 85 279 1.0 9.0 0.00 0.00 0.00 81 1006.6
20260506235502 85 279 1.0 9.0 0.00 0.00 0.00 81 1006.6
20260506235402 85 92 0.0 9.0 0.00 0.00 0.00 81 1006.5
20260506235306 85 83 1.0 9.0 0.00 0.00 0.00 81 1006.4
20260506235201 85 83 2.0 10.0 0.00 0.00 0.00 80 1006.4
20260506235103 85 178 4.0 10.0 0.00 0.00 0.00 80 1006.4
20260506235003 85 189 5.0 10.0 0.00 0.00 0.00 81 1006.5
20260506234904 85 190 4.0 10.0 0.00 0.00 0.00 80 1006.4
20260506234803 85 166 4.0 10.0 0.00 0.00 0.00 80 1006.5
20260506234703 85 228 3.0 10.0 0.00 0.00 0.00 81 1006.5
20260506234602 85 185 4.0 10.0 0.00 0.00 0.00 80 1006.5
20260506234502 85 197 5.0 10.0 0.00 0.00 0.00 80 1006.5
20260506234403 85 200 6.0 10.0 0.00 0.00 0.00 80 1006.4
20260506234301 85 142 4.0 10.0 0.00 0.00 0.00 80 1006.4
20260506234201 85 164 3.0 10.0 0.00 0.00 0.00 80 1006.4
20260506234103 85 200 4.0 10.0 0.00 0.00 0.00 80 1006.3
20260506234003 85 157 5.0 10.0 0.00 0.00 0.00 80 1006.4
20260506233902 85 227 4.0 10.0 0.00 0.00 0.00 80 1006.4
20260506233802 85 161 5.0 10.0 0.00 0.00 0.00 80 1006.4
20260506233703 85 172 5.0 10.0 0.00 0.00 0.00 80 1006.5
20260506233602 85 188 4.0 9.0 0.00 0.00 0.00 80 1006.4
20260506233502 85 206 4.0 9.0 0.00 0.00 0.00 80 1006.4
20260506233403 85 196 4.0 9.0 0.00 0.00 0.00 80 1006.5
20260506233302 85 200 4.0 10.0 0.00 0.00 0.00 80 1006.4
20260506233201 85 69 4.0 10.0 0.00 0.00 0.00 80 1006.4
20260506233104 85 197 5.0 11.0 0.00 0.00 0.00 80 1006.4
20260506233004 85 188 4.0 11.0 0.00 0.00 0.00 80 1006.3
20260506232902 85 154 3.0 11.0 0.00 0.00 0.00 80 1006.3
20260506232802 85 159 3.0 11.0 0.00 0.00 0.00 80 1006.2
20260506232704 85 135 4.0 11.0 0.00 0.00 0.00 80 1006.2
20260506232603 85 173 4.0 11.0 0.00 0.00 0.00 80 1006.2
20260506232503 85 155 5.0 11.0 0.00 0.00 0.00 80 1006.2
20260506232403 85 161 5.0 11.0 0.00 0.00 0.00 80 1006.2
20260506232306 85 176 6.0 11.0 0.00 0.00 0.00 79 1006.2
20260506232203 85 128 7.0 11.0 0.00 0.00 0.00 79 1006.2
20260506232102 86 203 6.0 11.0 0.00 0.00 0.00 79 1006.2
20260506232004 86 188 6.0 11.0 0.00 0.00 0.00 79 1006.2
20260506231902 86 166 6.0 10.0 0.00 0.00 0.00 79 1006.3
20260506231803 86 189 4.0 10.0 0.00 0.00 0.00 79 1006.2
20260506231704 86 197 4.0 10.0 0.00 0.00 0.00 79 1006.2
20260506231602 86 144 5.0 10.0 0.00 0.00 0.00 79 1006.3
20260506231504 86 168 5.0 10.0 0.00 0.00 0.00 79 1006.1
20260506231402 86 210 4.0 7.0 0.00 0.00 0.00 79 1006.2
20260506231302 86 154 4.0 7.0 0.00 0.00 0.00 78 1006.2
20260506231202 86 193 3.0 7.0 0.00 0.00 0.00 78 1006.2
20260506231102 86 140 2.0 7.0 0.00 0.00 0.00 78 1006.2
20260506231004 86 173 4.0 7.0 0.00 0.00 0.00 78 1006.2
20260506230903 86 130 5.0 7.0 0.00 0.00 0.00 78 1006.1
20260506230804 86 188 3.0 7.0 0.00 0.00 0.00 78 1006.1
20260506230702 87 192 2.0 6.0 0.00 0.00 0.00 78 1006.1
20260506230602 87 173 2.0 9.0 0.00 0.00 0.00 78 1006.1
20260506230502 87 107 3.0 9.0 0.00 0.00 0.00 78 1006.1
20260506230403 87 188 3.0 10.0 0.00 0.00 0.00 77 1006.1
20260506230302 87 182 4.0 10.0 0.00 0.00 0.00 77 1006.1
20260506230202 87 202 3.0 10.0 0.00 0.00 0.00 77 1006.1
20260506230103 87 214 3.0 10.0 0.00 0.00 0.00 77 1006.2
20260506230003 87 110 4.0 10.0 0.00 0.00 0.00 77 1006.2
20260506225902 87 188 4.0 10.0 0.00 0.00 0.00 77 1006.2
20260506225801 87 199 5.0 10.0 0.00 0.00 0.00 76 1006.2
20260506225702 87 200 5.0 10.0 0.00 0.00 0.00 77 1006.1
20260506225603 87 99 5.0 10.0 0.00 0.00 0.00 76 1006.2
20260506225502 87 175 4.0 10.0 0.00 0.00 0.00 77 1006.1
20260506225402 87 193 4.0 10.0 0.00 0.00 0.00 77 1006.1
20260506225305 87 130 4.0 10.0 0.00 0.00 0.00 77 1006.1
20260506225202 87 106 3.0 10.0 0.00 0.00 0.00 77 1006.1
20260506225102 87 111 3.0 10.0 0.00 0.00 0.00 77 1006.2
20260506225004 87 145 4.0 10.0 0.00 0.00 0.00 77 1006.2
20260506224902 87 165 4.0 11.0 0.00 0.00 0.00 77 1006.2
20260506224802 87 128 4.0 11.0 0.00 0.00 0.00 78 1006.2
20260506224703 87 185 5.0 11.0 0.00 0.00 0.00 77 1006.2
20260506224604 86 169 6.0 11.0 0.00 0.00 0.00 77 1006.1
20260506224503 87 185 6.0 11.0 0.00 0.00 0.00 77 1006.2
20260506224402 87 210 6.0 11.0 0.00 0.00 0.00 77 1006.1
20260506224302 87 210 6.0 11.0 0.00 0.00 0.00 77 1006.2
20260506224202 87 212 6.0 11.0 0.00 0.00 0.00 77 1006.1
20260506224102 87 192 6.0 11.0 0.00 0.00 0.00 76 1006.1
20260506224003 87 230 6.0 11.0 0.00 0.00 0.00 76 1006.1
20260506223904 87 183 6.0 11.0 0.00 0.00 0.00 76 1006.2
20260506223802 87 193 5.0 11.0 0.00 0.00 0.00 77 1006.1
20260506223703 87 203 6.0 11.0 0.00 0.00 0.00 77 1006.1
20260506223604 87 172 6.0 11.0 0.00 0.00 0.00 78 1006.1
20260506223503 87 188 5.0 13.0 0.00 0.00 0.00 78 1006.1
20260506223402 86 189 4.0 13.0 0.00 0.00 0.00 78 1006.2
20260506223302 86 100 5.0 13.0 0.00 0.00 0.00 78 1006.1
20260506223202 86 219 5.0 13.0 0.00 0.00 0.00 79 1006.2
20260506223102 86 171 3.0 13.0 0.00 0.00 0.00 79 1006.1
20260506223002 86 134 4.0 13.0 0.00 0.00 0.00 79 1006.1
20260506222905 86 179 5.0 13.0 0.00 0.00 0.00 79 1006.1
20260506222802 86 131 4.0 13.0 0.00 0.00 0.00 79 1006.2
20260506222703 86 188 5.0 13.0 0.00 0.00 0.00 79 1006.1
20260506222602 86 124 6.0 13.0 0.00 0.00 0.00 79 1006.1
20260506222503 86 166 5.0 10.0 0.00 0.00 0.00 79 1006.1
20260506222402 86 250 4.0 10.0 0.00 0.00 0.00 79 1006.1
20260506222301 86 182 3.0 10.0 0.00 0.00 0.00 79 1006.0
20260506222202 86 134 3.0 10.0 0.00 0.00 0.00 79 1006.0
20260506222102 86 195 4.0 10.0 0.00 0.00 0.00 79 1006.0
20260506222003 86 128 5.0 10.0 0.00 0.00 0.00 79 1006.1
20260506221903 86 164 5.0 10.0 0.00 0.00 0.00 79 1006.0
20260506221802 86 130 4.0 10.0 0.00 0.00 0.00 79 1006.1
20260506221703 86 83 4.0 11.0 0.00 0.00 0.00 79 1006.0
20260506221602 86 80 5.0 11.0 0.00 0.00 0.00 78 1006.0
20260506221505 86 162 5.0 11.0 0.00 0.00 0.00 78 1006.1
20260506221401 86 162 4.0 11.0 0.00 0.00 0.00 79 1006.0
20260506221302 86 162 4.0 11.0 0.00 0.00 0.00 79 1006.0
20260506221203 86 125 3.0 11.0 0.00 0.00 0.00 79 1006.0
20260506221103 86 159 4.0 11.0 0.00 0.00 0.00 79 1006.0
20260506221004 86 175 6.0 11.0 0.00 0.00 0.00 79 1005.9
20260506220904 86 165 6.0 11.0 0.00 0.00 0.00 78 1005.9
20260506220802 86 144 5.0 11.0 0.00 0.00 0.00 78 1006.0
20260506220702 86 116 3.0 9.0 0.00 0.00 0.00 78 1005.9
20260506220602 86 125 4.0 11.0 0.00 0.00 0.00 78 1006.0
20260506220503 86 173 6.0 11.0 0.00 0.00 0.00 78 1006.0
20260506220402 87 172 5.0 11.0 0.00 0.00 0.00 78 1006.0
20260506220303 87 157 4.0 11.0 0.00 0.00 0.00 78 1006.0
20260506220204 87 149 5.0 11.0 0.00 0.00 0.00 78 1006.0
20260506220002 87 118 6.0 11.0 0.00 0.00 0.00 77 1006.0
20260506215902 87 118 5.0 11.0 0.00 0.00 0.00 77 1005.9
20260506215803 87 199 5.0 11.0 0.00 0.00 0.00 77 1006.0
20260506215702 87 140 4.0 11.0 0.00 0.00 0.00 76 1006.0
20260506215602 87 189 3.0 13.0 0.00 0.00 0.00 76 1005.9
20260506215504 87 166 5.0 13.0 0.00 0.00 0.00 76 1005.9
20260506215402 87 189 5.0 13.0 0.00 0.00 0.00 76 1006.0
20260506215301 87 189 4.0 13.0 0.00 0.00 0.00 76 1006.0
20260506215201 87 179 4.0 13.0 0.00 0.00 0.00 76 1005.9
20260506215103 87 154 4.0 13.0 0.00 0.00 0.00 76 1005.9
20260506215002 87 240 4.0 13.0 0.00 0.00 0.00 76 1006.0
20260506214902 87 189 4.0 13.0 0.00 0.00 0.00 76 1006.0
20260506214804 87 195 6.0 13.0 0.00 0.00 0.00 76 1005.9
20260506214702 87 203 9.0 13.0 0.00 0.00 0.00 76 1005.9
20260506214603 87 195 7.0 12.0 0.00 0.00 0.00 76 1006.0
20260506214503 87 212 6.0 10.0 0.00 0.00 0.00 76 1006.0
20260506214404 87 197 6.0 10.0 0.00 0.00 0.00 76 1006.0
20260506214301 87 213 7.0 10.0 0.00 0.00 0.00 76 1006.0
20260506214202 87 227 5.0 10.0 0.00 0.00 0.00 76 1006.0
20260506214103 87 199 4.0 10.0 0.00 0.00 0.00 77 1006.0
20260506214002 87 227 5.0 10.0 0.00 0.00 0.00 77 1006.0
20260506213902 87 241 6.0 10.0 0.00 0.00 0.00 76 1006.0
20260506213803 87 250 6.0 10.0 0.00 0.00 0.00 76 1006.0
20260506213702 87 240 6.0 10.0 0.00 0.00 0.00 76 1006.0
20260506213602 87 195 5.0 10.0 0.00 0.00 0.00 77 1006.0
20260506213502 87 175 6.0 10.0 0.00 0.00 0.00 77 1005.9
20260506213402 87 176 5.0 10.0 0.00 0.00 0.00 77 1005.9
20260506213302 87 241 4.0 12.0 0.00 0.00 0.00 77 1005.9
20260506213202 87 192 4.0 12.0 0.00 0.00 0.00 77 1005.9
20260506213103 87 169 4.0 12.0 0.00 0.00 0.00 77 1005.9
20260506213004 87 131 3.0 12.0 0.00 0.00 0.00 77 1006.0
20260506212901 87 80 4.0 12.0 0.00 0.00 0.00 77 1006.0
20260506212803 87 186 6.0 12.0 0.00 0.00 0.00 77 1006.0
20260506212704 87 193 6.0 12.0 0.00 0.00 0.00 76 1006.0
20260506212601 87 224 6.0 12.0 0.00 0.00 0.00 76 1006.1
20260506212502 87 217 6.0 12.0 0.00 0.00 0.00 75 1006.2
20260506212403 87 182 6.0 12.0 0.00 0.00 0.00 76 1006.1
20260506212305 88 173 5.0 12.0 0.00 0.00 0.00 76 1006.2
20260506212202 88 173 4.0 7.0 0.00 0.00 0.00 76 1006.2
20260506212103 88 175 4.0 7.0 0.00 0.00 0.00 77 1006.3
20260506212003 88 186 5.0 10.0 0.00 0.00 0.00 77 1006.2
20260506211901 88 173 4.0 10.0 0.00 0.00 0.00 77 1006.2
20260506211802 87 159 4.0 11.0 0.00 0.00 0.00 78 1006.1
20260506211703 87 135 4.0 11.0 0.00 0.00 0.00 78 1006.2
20260506211602 87 149 4.0 12.0 0.00 0.00 0.00 78 1006.1
20260506211502 87 207 3.0 12.0 0.00 0.00 0.00 78 1006.1
20260506211403 87 51 4.0 12.0 0.00 0.00 0.00 78 1006.2
20260506211302 87 120 4.0 12.0 0.00 0.00 0.00 78 1006.2
20260506211202 87 133 4.0 12.0 0.00 0.00 0.00 77 1006.2
20260506211102 87 138 6.0 12.0 0.00 0.00 0.00 77 1006.2
20260506211004 87 148 6.0 12.0 0.00 0.00 0.00 77 1006.3
20260506210902 87 128 6.0 12.0 0.00 0.00 0.00 76 1006.2
20260506210802 87 85 6.0 12.0 0.00 0.00 0.00 76 1006.2
20260506210703 88 182 6.0 12.0 0.00 0.00 0.00 76 1006.3
20260506210603 88 157 5.0 12.0 0.00 0.00 0.00 76 1006.3
20260506210503 88 227 5.0 12.0 0.00 0.00 0.00 76 1006.2
20260506210403 88 197 4.0 12.0 0.00 0.00 0.00 76 1006.3
20260506210304 88 233 5.0 12.0 0.00 0.00 0.00 76 1006.2
20260506210202 88 233 4.0 12.0 0.00 0.00 0.00 76 1006.2
20260506210004 87 85 5.0 12.0 0.00 0.00 0.00 76 1006.3
20260506205902 87 135 5.0 12.0 0.00 0.00 0.00 76 1006.3
20260506205802 87 254 5.0 11.0 0.00 0.00 0.00 76 1006.3
20260506205703 87 188 6.0 11.0 0.00 0.00 0.00 76 1006.3
20260506205602 88 149 5.0 10.0 0.00 0.00 0.00 76 1006.4
20260506205502 87 202 5.0 10.0 0.00 0.00 0.00 76 1006.3
20260506205401 87 118 6.0 10.0 0.00 0.00 0.00 76 1006.3
20260506205306 88 116 6.0 9.0 0.00 0.00 0.00 76 1006.3
20260506205202 88 130 5.0 9.0 0.00 0.00 0.00 76 1006.3
20260506205102 88 131 4.0 9.0 0.00 0.00 0.00 76 1006.3
20260506205004 88 92 5.0 9.0 0.00 0.00 0.00 76 1006.3
20260506204903 88 176 5.0 9.0 0.00 0.00 0.00 76 1006.4
20260506204801 87 185 4.0 9.0 0.00 0.00 0.00 77 1006.4
20260506204703 87 176 4.0 9.0 0.00 0.00 0.00 77 1006.4
20260506204603 87 189 5.0 9.0 0.00 0.00 0.00 77 1006.4
20260506204503 87 238 5.0 9.0 0.00 0.00 0.00 78 1006.4
20260506204403 87 173 4.0 9.0 0.00 0.00 0.00 79 1006.4
20260506204303 87 125 4.0 9.0 0.00 0.00 0.00 79 1006.4
20260506204202 86 144 4.0 9.0 0.00 0.00 0.00 79 1006.5
20260506204102 86 161 4.0 9.0 0.00 0.00 0.00 79 1006.5
20260506204003 86 121 4.0 11.0 0.00 0.00 0.00 80 1006.6
20260506203903 85 255 4.0 11.0 0.00 0.00 0.00 80 1006.5
20260506203803 85 145 4.0 11.0 0.00 0.00 0.00 80 1006.5
20260506203702 85 127 5.0 11.0 0.00 0.00 0.00 80 1006.6
20260506203603 85 142 5.0 11.0 0.00 0.00 0.00 80 1006.5
20260506203502 85 135 4.0 11.0 0.00 0.00 0.00 81 1006.6
20260506203402 85 200 4.0 11.0 0.00 0.00 0.00 81 1006.5
20260506203303 85 141 4.0 11.0 0.00 0.00 0.00 81 1006.6
20260506203203 85 199 5.0 11.0 0.00 0.00 0.00 81 1006.6
20260506203102 85 175 4.0 11.0 0.00 0.00 0.00 81 1006.6
20260506203002 85 195 3.0 11.0 0.00 0.00 0.00 81 1006.6
20260506202903 85 164 3.0 12.0 0.00 0.00 0.00 81 1006.6
20260506202803 84 171 3.0 12.0 0.00 0.00 0.00 81 1006.7
20260506202702 84 179 3.0 12.0 0.00 0.00 0.00 81 1006.7
20260506202603 84 248 2.0 12.0 0.00 0.00 0.00 81 1006.7
20260506202502 84 169 4.0 12.0 0.00 0.00 0.00 81 1006.7
20260506202402 84 154 5.0 12.0 0.00 0.00 0.00 81 1006.7
20260506202306 84 147 4.0 12.0 0.00 0.00 0.00 81 1006.7
20260506202202 84 102 4.0 12.0 0.00 0.00 0.00 80 1006.6
20260506202103 84 271 6.0 12.0 0.00 0.00 0.00 80 1006.7
20260506202002 85 151 7.0 12.0 0.00 0.00 0.00 80 1006.7
20260506201902 85 168 6.0 12.0 0.00 0.00 0.00 80 1006.6
20260506201801 85 186 4.0 11.0 0.00 0.00 0.00 79 1006.7
20260506201702 85 131 6.0 11.0 0.00 0.00 0.00 79 1006.7
20260506201604 85 171 6.0 11.0 0.00 0.00 0.00 79 1006.7
20260506201503 85 135 6.0 11.0 0.00 0.00 0.00 79 1006.8
20260506201403 85 158 5.0 11.0 0.00 0.00 0.00 79 1006.7
20260506201302 85 78 4.0 11.0 0.00 0.00 0.00 81 1006.7
20260506201203 85 61 4.0 11.0 0.00 0.00 0.00 81 1006.7
20260506201102 85 89 4.0 11.0 0.00 0.00 0.00 81 1006.7
20260506201001 85 152 4.0 11.0 0.00 0.00 0.00 80 1006.7
20260506200902 86 116 5.0 11.0 0.00 0.00 0.00 79 1006.7
20260506200802 86 107 7.0 11.0 0.00 0.00 0.00 78 1006.7
20260506200701 86 104 6.0 11.0 0.00 0.00 0.00 77 1006.7
20260506200558 86 106 4.0 11.0 0.00 0.00 0.00 76 1006.7
20260506200457 87 195 4.0 11.0 0.00 0.00 0.00 76 1006.7
20260506200355 87 121 4.0 11.0 0.00 0.00 0.00 76 1006.7
20260506200254 87 171 3.0 10.0 0.00 0.00 0.00 76 1006.7
20260506200147 87 145 3.0 10.0 0.00 0.00 0.00 76 1006.6
20260506200048 87 109 3.0 10.0 0.00 0.00 0.00 76 1006.7
20260506195946 87 166 2.0 10.0 0.00 0.00 0.00 77 1006.7
20260506195845 87 118 4.0 10.0 0.00 0.00 0.00 76 1006.7
20260506195744 87 138 4.0 10.0 0.00 0.00 0.00 76 1006.8
20260506195645 87 172 4.0 10.0 0.00 0.00 0.00 76 1006.7
20260506195544 87 157 5.0 10.0 0.00 0.00 0.00 76 1006.7
20260506195444 87 135 6.0 10.0 0.00 0.00 0.00 76 1006.8
20260506195346 87 200 5.0 10.0 0.00 0.00 0.00 76 1006.7
20260506195244 87 188 3.0 10.0 0.00 0.00 0.00 76 1006.8
20260506195144 87 192 4.0 10.0 0.00 0.00 0.00 76 1006.8
20260506195044 86 186 5.0 10.0 0.00 0.00 0.00 76 1006.8
20260506194946 86 124 5.0 10.0 0.00 0.00 0.00 76 1006.8
20260506194844 86 252 4.0 9.0 0.00 0.00 0.00 75 1006.9
20260506194744 87 193 4.0 9.0 0.00 0.00 0.00 75 1006.8
20260506194645 87 206 4.0 9.0 0.00 0.00 0.00 75 1006.9
20260506194544 87 195 5.0 9.0 0.00 0.00 0.00 75 1006.9
20260506194444 87 189 5.0 9.0 0.00 0.00 0.00 76 1006.8
20260506194344 87 151 4.0 7.0 0.00 0.00 0.00 76 1006.8
20260506194246 87 196 3.0 7.0 0.00 0.00 0.00 76 1006.9
20260506194144 87 128 2.0 7.0 0.00 0.00 0.00 76 1006.9
20260506194044 87 161 2.0 7.0 0.00 0.00 0.00 77 1006.9
20260506193946 87 186 2.0 7.0 0.00 0.00 0.00 77 1007.0
20260506193845 86 116 2.0 7.0 0.00 0.00 0.00 77 1006.9
20260506193745 86 75 2.0 7.0 0.00 0.00 0.00 77 1007.0
20260506193644 86 149 2.0 7.0 0.00 0.00 0.00 77 1006.9
20260506193546 86 141 3.0 10.0 0.00 0.00 0.00 76 1006.9
20260506193444 86 131 3.0 11.0 0.00 0.00 0.00 76 1006.9
20260506193343 86 158 4.0 11.0 0.00 0.00 0.00 76 1006.9
20260506193244 86 161 3.0 11.0 0.00 0.00 0.00 76 1007.0